Time,TemperatureF,DewpointF,PressureIn,WindDirection,WindDirectionDegrees,WindSpeedMPH,WindSpeedGustMPH,Humidity,HourlyPrecipIn,Conditions,Clouds,dailyrainin,SoftwareType,DateUTC
2013-02-05 00:01:00,3.2,-6.2,29.82,South,179,0.0,0.0,64,0.00,,SCT075,0.00,VWS V12.07,2013-02-05 06:01:00,
2013-02-05 00:03:00,3.2,-6.2,29.82,South,179,0.0,0.0,64,0.00,,SCT075,0.00,VWS V12.07,2013-02-05 06:03:00,
2013-02-05 00:06:00,3.4,-6.3,29.82,South,179,0.0,0.0,63,0.00,,BKN095,0.00,VWS V12.07,2013-02-05 06:06:00,
2013-02-05 00:08:00,3.4,-6.3,29.82,South,179,0.0,0.0,63,0.00,,SCT075,0.00,VWS V12.07,2013-02-05 06:08:00,
2013-02-05 00:09:00,3.4,-6.3,29.82,South,179,0.0,0.0,63,0.00,,SCT075,0.00,VWS V12.07,2013-02-05 06:09:00,
2013-02-05 00:12:00,3.5,-5.9,29.82,South,179,0.0,0.0,64,0.00,,SCT075,0.00,VWS V12.07,2013-02-05 06:12:00,
2013-02-05 00:13:00,3.5,-5.9,29.82,South,179,0.0,0.0,64,0.00,,SCT075,0.00,VWS V12.07,2013-02-05 06:13:00,
2013-02-05 00:14:00,3.5,-5.6,29.82,South,179,0.0,0.0,65,0.00,,SCT075,0.00,VWS V12.07,2013-02-05 06:14:00,
2013-02-05 00:17:00,3.5,-5.6,29.82,South,179,0.0,1.0,65,0.00,,SCT075,0.00,VWS V12.07,2013-02-05 06:17:00,
2013-02-05 00:18:00,3.5,-5.6,29.82,South,179,0.0,0.0,65,0.00,,SCT075,0.00,VWS V12.07,2013-02-05 06:18:00,
2013-02-05 00:19:00,3.7,-5.1,29.82,South,179,0.0,0.0,66,0.00,,SCT075,0.00,VWS V12.07,2013-02-05 06:19:00,
2013-02-05 00:22:00,3.7,-5.1,29.82,South,179,0.0,0.0,66,0.00,,SCT075,0.00,VWS V12.07,2013-02-05 06:22:00,
2013-02-05 00:23:00,3.7,-4.8,29.82,South,179,0.0,0.0,67,0.00,,SCT075,0.00,VWS V12.07,2013-02-05 06:23:00,
2013-02-05 00:24:00,3.7,-4.8,29.82,South,179,0.0,0.0,67,0.00,,SCT075,0.00,VWS V12.07,2013-02-05 06:24:00,
2013-02-05 00:27:00,3.9,-4.6,29.82,South,179,0.0,0.0,67,0.00,,SCT075,0.00,VWS V12.07,2013-02-05 06:27:00,
2013-02-05 00:28:00,3.9,-4.6,29.82,South,179,0.0,0.0,67,0.00,,SCT075,0.00,VWS V12.07,2013-02-05 06:28:00,
2013-02-05 00:29:00,3.9,-4.6,29.82,South,179,0.0,0.0,67,0.00,,SCT075,0.00,VWS V12.07,2013-02-05 06:29:00,
2013-02-05 00:32:00,4.1,-4.4,29.82,South,179,0.0,0.0,67,0.00,,SCT075,0.00,VWS V12.07,2013-02-05 06:32:00,
2013-02-05 00:34:00,4.1,-4.4,29.82,South,179,0.0,0.0,67,0.00,,SCT075,0.00,VWS V12.07,2013-02-05 06:34:00,
2013-02-05 00:35:00,4.1,-4.4,29.82,South,179,0.0,0.0,67,0.00,,OVC065,0.00,VWS V12.07,2013-02-05 06:35:00,
2013-02-05 00:37:00,4.3,-3.9,29.82,South,179,0.0,0.0,68,0.00,,OVC065,0.00,VWS V12.07,2013-02-05 06:37:00,
2013-02-05 00:39:00,4.3,-3.9,29.82,South,179,0.0,0.0,68,0.00,,OVC065,0.00,VWS V12.07,2013-02-05 06:39:00,
2013-02-05 00:41:00,4.3,-4.2,29.82,South,179,0.0,0.0,67,0.00,,OVC065,0.00,VWS V12.07,2013-02-05 06:41:00,
2013-02-05 00:42:00,4.3,-4.2,29.82,South,179,0.0,0.0,67,0.00,,OVC065,0.00,VWS V12.07,2013-02-05 06:42:00,
2013-02-05 00:44:00,4.3,-4.2,29.82,South,179,0.0,0.0,67,0.00,,OVC065,0.00,VWS V12.07,2013-02-05 06:44:00,
2013-02-05 00:46:00,4.5,-4.0,29.82,South,179,0.0,0.0,67,0.00,,OVC065,0.00,VWS V12.07,2013-02-05 06:46:00,
2013-02-05 00:47:00,4.5,-4.0,29.82,South,179,0.0,0.0,67,0.00,,OVC065,0.00,VWS V12.07,2013-02-05 06:47:00,
2013-02-05 00:49:00,4.5,-4.0,29.82,South,179,0.0,0.0,67,0.00,,OVC065,0.00,VWS V12.07,2013-02-05 06:49:00,
2013-02-05 00:51:00,4.7,-3.8,29.82,South,179,0.0,1.0,67,0.00,,OVC065,0.00,VWS V12.07,2013-02-05 06:51:00,
2013-02-05 00:52:00,4.7,-3.8,29.82,South,179,0.0,1.0,67,0.00,,OVC065,0.00,VWS V12.07,2013-02-05 06:52:00,
2013-02-05 00:53:00,4.7,-3.8,29.82,South,179,0.0,1.0,67,0.00,,OVC065,0.00,VWS V12.07,2013-02-05 06:53:00,
2013-02-05 00:54:00,4.8,-3.7,29.82,South,179,1.0,1.0,67,0.00,,OVC065,0.00,VWS V12.07,2013-02-05 06:54:00,
2013-02-05 00:56:00,5.0,-3.5,29.82,South,179,1.0,1.0,67,0.00,,OVC065,0.00,VWS V12.07,2013-02-05 06:56:00,
2013-02-05 00:58:00,5.0,-3.9,29.82,South,179,0.0,2.0,66,0.00,,OVC065,0.00,VWS V12.07,2013-02-05 06:58:00,
2013-02-05 00:59:00,5.2,-3.7,29.82,South,179,1.0,2.0,66,0.00,,OVC065,0.00,VWS V12.07,2013-02-05 06:59:00,
2013-02-05 01:02:00,5.6,-3.9,29.80,SSW,207,0.0,2.0,64,0.00,,OVC065,0.00,VWS V12.07,2013-02-05 07:02:00,
2013-02-05 01:03:00,5.6,-3.9,29.80,SSW,207,0.0,2.0,64,0.00,,OVC065,0.00,VWS V12.07,2013-02-05 07:03:00,
2013-02-05 01:05:00,5.8,-3.7,29.80,SW,222,1.0,3.0,64,0.00,,OVC075,0.00,VWS V12.07,2013-02-05 07:05:00,
2013-02-05 01:08:00,6.0,-3.5,29.80,SW,222,1.0,3.0,64,0.00,,OVC075,0.00,VWS V12.07,2013-02-05 07:08:00,
2013-02-05 01:10:00,6.1,-3.5,29.80,SW,222,1.0,2.0,64,0.00,,OVC065,0.00,VWS V12.07,2013-02-05 07:10:00,
2013-02-05 01:13:00,6.1,-3.5,29.80,SW,222,0.0,2.0,64,0.00,,OVC065,0.00,VWS V12.07,2013-02-05 07:13:00,
2013-02-05 01:15:00,6.1,-3.8,29.80,SW,222,1.0,2.0,63,0.00,,OVC065,0.00,VWS V12.07,2013-02-05 07:15:00,
2013-02-05 01:18:00,6.1,-3.8,29.80,SW,222,2.0,2.0,63,0.00,,OVC065,0.00,VWS V12.07,2013-02-05 07:18:00,
2013-02-05 01:20:00,6.1,-3.8,29.80,SSE,155,1.0,2.0,63,0.00,,OVC065,0.00,VWS V12.07,2013-02-05 07:20:00,
2013-02-05 01:23:00,6.3,-3.3,29.80,South,177,0.0,3.0,64,0.00,,OVC065,0.00,VWS V12.07,2013-02-05 07:23:00,
2013-02-05 01:26:00,6.3,-3.3,29.80,South,184,0.0,3.0,64,0.00,,OVC065,0.00,VWS V12.07,2013-02-05 07:26:00,
2013-02-05 01:28:00,6.3,-2.9,29.80,South,184,1.0,1.0,65,0.00,,OVC065,0.00,VWS V12.07,2013-02-05 07:28:00,
2013-02-05 01:31:00,6.3,-2.6,29.78,South,188,1.0,4.0,66,0.00,,OVC065,0.00,VWS V12.07,2013-02-05 07:31:00,
2013-02-05 01:33:00,6.3,-2.3,29.78,South,188,2.0,4.0,67,0.00,,OVC065,0.00,VWS V12.07,2013-02-05 07:33:00,
2013-02-05 01:34:00,6.3,-2.3,29.78,South,188,1.0,4.0,67,0.00,,OVC065,0.00,VWS V12.07,2013-02-05 07:34:00,
2013-02-05 01:36:00,6.3,-2.0,29.78,South,188,2.0,4.0,68,0.00,,OVC047,0.00,VWS V12.07,2013-02-05 07:36:00,
2013-02-05 01:38:00,6.1,-1.6,29.78,South,191,1.0,2.0,70,0.00,,OVC047,0.00,VWS V12.07,2013-02-05 07:38:00,
2013-02-05 01:39:00,6.1,-1.6,29.78,South,191,1.0,2.0,70,0.00,,OVC047,0.00,VWS V12.07,2013-02-05 07:39:00,
2013-02-05 01:41:00,6.1,-1.3,29.78,South,191,0.0,2.0,71,0.00,,OVC047,0.00,VWS V12.07,2013-02-05 07:41:00,
2013-02-05 01:44:00,6.0,-0.8,29.78,South,188,0.0,3.0,73,0.00,,OVC047,0.00,VWS V12.07,2013-02-05 07:44:00,
2013-02-05 01:45:00,6.0,-0.8,29.77,South,188,0.0,3.0,73,0.00,,OVC047,0.00,VWS V12.07,2013-02-05 07:45:00,
2013-02-05 01:46:00,6.0,-0.5,29.77,South,188,0.0,3.0,74,0.00,,OVC047,0.00,VWS V12.07,2013-02-05 07:46:00,
2013-02-05 01:49:00,6.0,-0.2,29.77,South,188,0.0,2.0,75,0.00,,OVC044,0.00,VWS V12.07,2013-02-05 07:49:00,
2013-02-05 01:50:00,6.0,0.1,29.77,South,188,1.0,2.0,76,0.00,,OVC044,0.00,VWS V12.07,2013-02-05 07:50:00,
2013-02-05 01:52:00,6.0,0.3,29.77,South,188,2.0,2.0,77,0.00,,OVC044,0.00,VWS V12.07,2013-02-05 07:52:00,
2013-02-05 01:54:00,6.0,0.3,29.77,South,188,1.0,2.0,77,0.00,,OVC044,0.00,VWS V12.07,2013-02-05 07:54:00,
2013-02-05 01:55:00,6.0,0.6,29.77,South,188,1.0,2.0,78,0.00,,OVC044,0.00,VWS V12.07,2013-02-05 07:55:00,
2013-02-05 01:57:00,6.0,0.6,29.77,South,188,1.0,2.0,78,0.00,,OVC044,0.00,VWS V12.07,2013-02-05 07:57:00,
2013-02-05 02:00:00,6.0,0.9,29.76,South,188,1.0,2.0,79,0.00,,OVC044,0.00,VWS V12.07,2013-02-05 08:00:00,
2013-02-05 02:02:00,6.0,1.2,29.76,SSW,193,2.0,3.0,80,0.00,,OVC044,0.00,VWS V12.07,2013-02-05 08:02:00,
2013-02-05 02:05:00,6.0,1.2,29.76,SSW,193,1.0,3.0,80,0.00,,OVC049,0.00,VWS V12.07,2013-02-05 08:05:00,
2013-02-05 02:06:00,6.1,1.3,29.76,SSW,193,2.0,3.0,80,0.00,,OVC049,0.00,VWS V12.07,2013-02-05 08:06:00,
2013-02-05 02:08:00,6.1,1.3,29.76,SSW,193,1.0,3.0,80,0.00,,OVC049,0.00,VWS V12.07,2013-02-05 08:08:00,
2013-02-05 02:10:00,6.1,1.5,29.76,SSW,193,1.0,3.0,81,0.00,,OVC044,0.00,VWS V12.07,2013-02-05 08:10:00,
2013-02-05 02:12:00,6.1,1.5,29.76,SSW,193,1.0,3.0,81,0.00,,OVC044,0.00,VWS V12.07,2013-02-05 08:12:00,
2013-02-05 02:13:00,6.1,1.5,29.76,SSW,193,1.0,3.0,81,0.00,,OVC044,0.00,VWS V12.07,2013-02-05 08:13:00,
2013-02-05 02:15:00,6.3,1.7,29.75,SSW,193,1.0,3.0,81,0.01,,OVC044,0.01,VWS V12.07,2013-02-05 08:15:00,
2013-02-05 02:17:00,6.3,1.7,29.75,South,191,1.0,3.0,81,0.01,,OVC044,0.01,VWS V12.07,2013-02-05 08:17:00,
2013-02-05 02:18:00,6.3,2.0,29.75,South,191,1.0,3.0,82,0.01,,OVC044,0.01,VWS V12.07,2013-02-05 08:18:00,
2013-02-05 02:20:00,6.3,2.0,29.75,SSW,197,1.0,3.0,82,0.01,,OVC044,0.01,VWS V12.07,2013-02-05 08:20:00,
2013-02-05 02:21:00,6.3,2.0,29.75,SSW,197,1.0,3.0,82,0.01,,OVC044,0.01,VWS V12.07,2013-02-05 08:21:00,
2013-02-05 02:41:00,6.7,2.6,29.74,SSW,194,2.0,3.0,83,0.01,,OVC044,0.01,VWS V12.07,2013-02-05 08:41:00,
2013-02-05 02:42:00,6.7,2.6,29.74,SSW,194,2.0,3.0,83,0.01,,OVC044,0.01,VWS V12.07,2013-02-05 08:42:00,
2013-02-05 02:46:00,6.7,2.6,29.73,SSW,194,1.0,3.0,83,0.01,,OVC044,0.01,VWS V12.07,2013-02-05 08:46:00,
2013-02-05 02:47:00,6.7,2.6,29.73,SSW,194,1.0,3.0,83,0.01,,OVC044,0.01,VWS V12.07,2013-02-05 08:47:00,
2013-02-05 02:52:00,6.7,2.6,29.73,SSW,195,2.0,3.0,83,0.02,,,0.02,VWS V12.07,2013-02-05 08:52:00,
2013-02-05 02:53:00,6.7,2.6,29.73,SSW,195,1.0,3.0,83,0.02,,,0.02,VWS V12.07,2013-02-05 08:53:00,
2013-02-05 02:57:00,6.9,2.8,29.73,SSW,195,1.0,3.0,83,0.02,,,0.02,VWS V12.07,2013-02-05 08:57:00,
2013-02-05 02:58:00,6.9,2.8,29.73,SSW,195,1.0,3.0,83,0.02,,,0.02,VWS V12.07,2013-02-05 08:58:00,
2013-02-05 03:02:00,6.9,2.8,29.72,SSW,195,2.0,3.0,83,0.02,,,0.02,VWS V12.07,2013-02-05 09:02:00,
2013-02-05 03:03:00,6.9,2.8,29.72,SSW,195,1.0,3.0,83,0.02,,,0.02,VWS V12.07,2013-02-05 09:03:00,
2013-02-05 03:07:00,6.9,2.8,29.72,SSW,195,0.0,3.0,83,0.02,,,0.02,VWS V12.07,2013-02-05 09:07:00,
2013-02-05 03:08:00,6.9,2.8,29.72,SSW,195,1.0,3.0,83,0.02,,,0.02,VWS V12.07,2013-02-05 09:08:00,
2013-02-05 03:13:00,7.0,3.2,29.72,South,187,0.0,3.0,84,0.02,,,0.02,VWS V12.07,2013-02-05 09:13:00,
2013-02-05 03:18:00,7.2,3.4,29.71,SSW,196,1.0,3.0,84,0.01,,,0.02,VWS V12.07,2013-02-05 09:18:00,
2013-02-05 03:23:00,7.4,3.6,29.71,SSW,200,2.0,3.0,84,0.02,,,0.03,VWS V12.07,2013-02-05 09:23:00,
2013-02-05 03:24:00,7.4,3.6,29.71,SSW,206,0.0,3.0,84,0.02,,,0.03,VWS V12.07,2013-02-05 09:24:00,
2013-02-05 03:28:00,7.6,4.0,29.71,SSW,213,0.0,3.0,85,0.02,,,0.03,VWS V12.07,2013-02-05 09:28:00,
2013-02-05 03:29:00,7.6,4.0,29.71,SSW,213,1.0,3.0,85,0.02,,,0.03,VWS V12.07,2013-02-05 09:29:00,
2013-02-05 03:33:00,7.6,3.8,29.70,SSW,213,1.0,3.0,84,0.02,,,0.03,VWS V12.07,2013-02-05 09:33:00,
2013-02-05 03:34:00,7.6,3.8,29.70,SSW,213,1.0,3.0,84,0.02,,,0.03,VWS V12.07,2013-02-05 09:34:00,
2013-02-05 03:38:00,7.6,3.8,29.70,SSW,213,1.0,2.0,84,0.02,,,0.03,VWS V12.07,2013-02-05 09:38:00,
2013-02-05 03:39:00,7.6,3.8,29.70,SSW,213,1.0,2.0,84,0.02,,,0.03,VWS V12.07,2013-02-05 09:39:00,
2013-02-05 03:43:00,7.6,3.8,29.70,SSW,198,1.0,5.0,84,0.02,,,0.03,VWS V12.07,2013-02-05 09:43:00,
2013-02-05 03:44:00,7.6,3.8,29.70,SSW,198,0.0,5.0,84,0.02,,,0.03,VWS V12.07,2013-02-05 09:44:00,
2013-02-05 03:45:00,7.6,3.8,29.70,SSW,198,2.0,5.0,84,0.03,,,0.04,VWS V12.07,2013-02-05 09:45:00,
2013-02-05 03:49:00,7.6,3.8,29.70,SSW,198,2.0,2.0,84,0.03,,,0.04,VWS V12.07,2013-02-05 09:49:00,
2013-02-05 03:50:00,7.6,3.8,29.70,SSW,198,2.0,2.0,84,0.03,,,0.04,VWS V12.07,2013-02-05 09:50:00,
2013-02-05 03:54:00,7.6,3.8,29.70,South,172,2.0,3.0,84,0.03,,,0.04,VWS V12.07,2013-02-05 09:54:00,
2013-02-05 03:55:00,7.6,3.8,29.70,South,176,2.0,3.0,84,0.03,,,0.04,VWS V12.07,2013-02-05 09:55:00,
2013-02-05 03:59:00,7.6,3.8,29.70,South,191,1.0,2.0,84,0.02,,,0.04,VWS V12.07,2013-02-05 09:59:00,
2013-02-05 04:00:00,7.6,3.8,29.68,South,191,1.0,2.0,84,0.02,,,0.04,VWS V12.07,2013-02-05 10:00:00,
2013-02-05 04:04:00,7.6,3.8,29.68,SSW,196,2.0,3.0,84,0.03,,,0.05,VWS V12.07,2013-02-05 10:04:00,
2013-02-05 04:05:00,7.6,3.8,29.68,SSW,198,0.0,3.0,84,0.03,,,0.05,VWS V12.07,2013-02-05 10:05:00,
2013-02-05 04:07:00,7.7,3.9,29.68,SSW,198,1.0,3.0,84,0.03,,,0.05,VWS V12.07,2013-02-05 10:07:00,
2013-02-05 04:09:00,7.7,4.1,29.68,SSW,196,2.0,3.0,85,0.03,,,0.05,VWS V12.07,2013-02-05 10:09:00,
2013-02-05 04:10:00,7.7,4.1,29.68,SSW,196,1.0,3.0,85,0.03,,,0.05,VWS V12.07,2013-02-05 10:10:00,
2013-02-05 04:11:00,7.7,4.1,29.68,SSW,196,2.0,3.0,85,0.03,,,0.05,VWS V12.07,2013-02-05 10:11:00,
2013-02-05 04:12:00,7.9,4.3,29.68,SSW,200,0.0,3.0,85,0.03,,,0.05,VWS V12.07,2013-02-05 10:12:00,
2013-02-05 04:15:00,7.9,4.3,29.68,SSW,195,2.0,3.0,85,0.03,,,0.05,VWS V12.07,2013-02-05 10:15:00,
2013-02-05 04:16:00,7.9,4.3,29.68,SSW,210,0.0,3.0,85,0.03,,,0.05,VWS V12.07,2013-02-05 10:16:00,
2013-02-05 04:17:00,7.9,4.3,29.68,South,176,2.0,3.0,85,0.03,,,0.05,VWS V12.07,2013-02-05 10:17:00,
2013-02-05 04:20:00,8.1,4.5,29.68,SSW,192,2.0,2.0,85,0.03,,,0.05,VWS V12.07,2013-02-05 10:20:00,
2013-02-05 04:21:00,8.1,4.5,29.68,SSW,192,1.0,2.0,85,0.03,,,0.05,VWS V12.07,2013-02-05 10:21:00,
2013-02-05 04:22:00,8.1,4.5,29.68,SSW,192,1.0,2.0,85,0.03,,,0.05,VWS V12.07,2013-02-05 10:22:00,
2013-02-05 04:25:00,8.3,4.7,29.68,SW,214,2.0,3.0,85,0.03,,,0.05,VWS V12.07,2013-02-05 10:25:00,
2013-02-05 04:26:00,8.3,4.7,29.68,SW,214,2.0,3.0,85,0.03,,,0.06,VWS V12.07,2013-02-05 10:26:00,
2013-02-05 04:27:00,8.3,4.7,29.68,SSW,199,2.0,3.0,85,0.03,,,0.06,VWS V12.07,2013-02-05 10:27:00,
2013-02-05 04:28:00,8.3,4.7,29.68,SSW,192,3.0,3.0,85,0.03,,,0.06,VWS V12.07,2013-02-05 10:28:00,
2013-02-05 04:31:00,8.4,4.8,29.67,SSW,200,2.0,4.0,85,0.03,,,0.06,VWS V12.07,2013-02-05 10:31:00,
2013-02-05 04:32:00,8.4,4.8,29.67,SSW,203,1.0,4.0,85,0.03,,,0.06,VWS V12.07,2013-02-05 10:32:00,
2013-02-05 04:33:00,8.4,4.8,29.67,SSW,211,1.0,4.0,85,0.03,,,0.06,VWS V12.07,2013-02-05 10:33:00,
2013-02-05 04:36:00,8.6,5.0,29.67,SW,215,3.0,4.0,85,0.03,,,0.06,VWS V12.07,2013-02-05 10:36:00,
2013-02-05 04:37:00,8.6,5.0,29.67,SSW,212,2.0,5.0,85,0.03,,,0.06,VWS V12.07,2013-02-05 10:37:00,
2013-02-05 04:38:00,8.6,5.0,29.67,SSW,212,2.0,0.0,85,0.03,,,0.06,VWS V12.07,2013-02-05 10:38:00,
2013-02-05 04:41:00,8.6,5.0,29.67,SW,225,2.0,5.0,85,0.03,,,0.06,VWS V12.07,2013-02-05 10:41:00,
2013-02-05 04:42:00,8.8,5.2,29.67,SW,225,2.0,5.0,85,0.03,,,0.06,VWS V12.07,2013-02-05 10:42:00,
2013-02-05 04:44:00,8.8,5.2,29.67,SSW,197,2.0,5.0,85,0.03,,,0.06,VWS V12.07,2013-02-05 10:44:00,
2013-02-05 04:46:00,8.8,5.2,29.67,SW,219,2.0,5.0,85,0.03,,,0.06,VWS V12.07,2013-02-05 10:46:00,
2013-02-05 04:47:00,8.8,5.2,29.67,SW,225,1.0,5.0,85,0.02,,,0.06,VWS V12.07,2013-02-05 10:47:00,
2013-02-05 04:49:00,8.8,5.2,29.67,SW,216,4.0,4.0,85,0.02,,,0.06,VWS V12.07,2013-02-05 10:49:00,
2013-02-05 04:51:00,8.8,5.2,29.67,SSW,211,2.0,6.0,85,0.02,,,0.06,VWS V12.07,2013-02-05 10:51:00,
2013-02-05 04:52:00,8.8,5.2,29.67,SSW,212,2.0,6.0,85,0.02,,,0.06,VWS V12.07,2013-02-05 10:52:00,
2013-02-05 04:53:00,8.8,5.2,29.67,SSW,212,3.0,6.0,85,0.02,,,0.06,VWS V12.07,2013-02-05 10:53:00,
2013-02-05 04:54:00,9.0,5.4,29.67,SW,218,2.0,6.0,85,0.02,,,0.06,VWS V12.07,2013-02-05 10:54:00,
2013-02-05 04:57:00,9.0,5.4,29.67,WSW,245,1.0,6.0,85,0.02,,,0.06,VWS V12.07,2013-02-05 10:57:00,
2013-02-05 04:58:00,9.0,5.4,29.67,SW,216,2.0,6.0,85,0.02,,,0.06,VWS V12.07,2013-02-05 10:58:00,
2013-02-05 04:59:00,9.0,5.4,29.67,SSW,196,3.0,5.0,85,0.02,,,0.06,VWS V12.07,2013-02-05 10:59:00,
2013-02-05 05:02:00,9.0,5.4,29.67,SSW,206,2.0,5.0,85,0.02,,,0.06,VWS V12.07,2013-02-05 11:02:00,
2013-02-05 05:03:00,9.0,5.4,29.67,SW,229,0.0,5.0,85,0.02,,,0.06,VWS V12.07,2013-02-05 11:03:00,
2013-02-05 05:04:00,9.0,5.4,29.67,SW,221,2.0,5.0,85,0.02,,,0.06,VWS V12.07,2013-02-05 11:04:00,
2013-02-05 05:07:00,9.0,5.4,29.67,SSW,205,1.0,5.0,85,0.01,,,0.06,VWS V12.07,2013-02-05 11:07:00,
2013-02-05 05:08:00,9.0,5.4,29.67,SW,214,2.0,5.0,85,0.01,,,0.06,VWS V12.07,2013-02-05 11:08:00,
2013-02-05 05:10:00,9.0,5.4,29.67,SW,220,1.0,3.0,85,0.01,,,0.06,VWS V12.07,2013-02-05 11:10:00,
2013-02-05 05:12:00,9.0,5.4,29.67,SW,219,3.0,4.0,85,0.01,,,0.06,VWS V12.07,2013-02-05 11:12:00,
2013-02-05 05:13:00,8.8,5.2,29.67,SW,217,3.0,4.0,85,0.01,,,0.06,VWS V12.07,2013-02-05 11:13:00,
2013-02-05 05:15:00,8.8,5.2,29.67,SSW,199,2.0,4.0,85,0.02,,,0.07,VWS V12.07,2013-02-05 11:15:00,
2013-02-05 05:18:00,8.8,5.2,29.67,SSW,211,2.0,4.0,85,0.02,,,0.07,VWS V12.07,2013-02-05 11:18:00,
2013-02-05 05:20:00,8.8,5.2,29.67,SSW,201,1.0,4.0,85,0.02,,,0.07,VWS V12.07,2013-02-05 11:20:00,
2013-02-05 05:23:00,8.8,5.2,29.67,SW,231,1.0,4.0,85,0.02,,,0.07,VWS V12.07,2013-02-05 11:23:00,
2013-02-05 05:25:00,8.8,5.2,29.67,SW,217,2.0,4.0,85,0.02,,,0.07,VWS V12.07,2013-02-05 11:25:00,
2013-02-05 05:28:00,8.8,5.2,29.67,SW,217,2.0,4.0,85,0.02,,,0.07,VWS V12.07,2013-02-05 11:28:00,
2013-02-05 05:30:00,8.8,5.2,29.67,SSW,213,2.0,3.0,85,0.02,,,0.07,VWS V12.07,2013-02-05 11:30:00,
2013-02-05 05:33:00,8.8,5.2,29.67,SSW,213,1.0,3.0,85,0.02,,,0.07,VWS V12.07,2013-02-05 11:33:00,
2013-02-05 05:36:00,8.8,5.2,29.67,SSW,209,2.0,3.0,85,0.02,,,0.07,VWS V12.07,2013-02-05 11:36:00,
2013-02-05 05:38:00,8.8,5.2,29.67,SSW,210,1.0,3.0,85,0.01,,,0.07,VWS V12.07,2013-02-05 11:38:00,
2013-02-05 05:41:00,8.8,5.2,29.67,SW,224,1.0,3.0,85,0.01,,,0.07,VWS V12.07,2013-02-05 11:41:00,
2013-02-05 05:43:00,8.8,5.2,29.67,SW,224,1.0,3.0,85,0.01,,,0.07,VWS V12.07,2013-02-05 11:43:00,
2013-02-05 05:46:00,8.8,5.2,29.66,SSW,201,1.0,3.0,85,0.01,,,0.07,VWS V12.07,2013-02-05 11:46:00,
2013-02-05 05:48:00,8.8,5.2,29.66,SSW,207,2.0,3.0,85,0.01,,,0.07,VWS V12.07,2013-02-05 11:48:00,
2013-02-05 05:49:00,8.8,5.2,29.66,SSW,206,1.0,3.0,85,0.01,,,0.07,VWS V12.07,2013-02-05 11:49:00,
2013-02-05 05:51:00,8.8,5.2,29.66,SSW,197,1.0,3.0,85,0.01,,,0.07,VWS V12.07,2013-02-05 11:51:00,
2013-02-05 05:53:00,8.8,5.2,29.66,South,190,2.0,3.0,85,0.01,,,0.07,VWS V12.07,2013-02-05 11:53:00,
2013-02-05 05:54:00,8.8,5.2,29.66,South,180,1.0,3.0,85,0.01,,,0.07,VWS V12.07,2013-02-05 11:54:00,
2013-02-05 05:56:00,8.8,5.2,29.66,SSW,209,1.0,3.0,85,0.01,,,0.07,VWS V12.07,2013-02-05 11:56:00,
2013-02-05 05:58:00,8.8,5.2,29.66,SSW,208,1.0,2.0,85,0.01,,,0.07,VWS V12.07,2013-02-05 11:58:00,
2013-02-05 05:59:00,8.8,5.2,29.66,SSW,209,1.0,2.0,85,0.01,,,0.07,VWS V12.07,2013-02-05 11:59:00,
2013-02-05 06:02:00,8.8,5.2,29.67,SSW,209,1.0,2.0,85,0.01,,,0.07,VWS V12.07,2013-02-05 12:02:00,
2013-02-05 06:03:00,8.8,5.2,29.67,SW,214,2.0,2.0,85,0.01,,,0.07,VWS V12.07,2013-02-05 12:03:00,
2013-02-05 06:04:00,8.8,5.2,29.67,SW,217,2.0,3.0,85,0.01,,,0.07,VWS V12.07,2013-02-05 12:04:00,
2013-02-05 06:07:00,8.8,5.2,29.67,SW,217,1.0,3.0,85,0.01,,,0.07,VWS V12.07,2013-02-05 12:07:00,
2013-02-05 06:08:00,8.8,5.2,29.67,SW,217,0.0,2.0,85,0.01,,,0.07,VWS V12.07,2013-02-05 12:08:00,
2013-02-05 06:09:00,8.8,5.2,29.67,SW,217,1.0,2.0,85,0.01,,,0.07,VWS V12.07,2013-02-05 12:09:00,
2013-02-05 06:12:00,8.8,5.2,29.67,SW,217,1.0,2.0,85,0.01,,,0.07,VWS V12.07,2013-02-05 12:12:00,
2013-02-05 06:13:00,8.8,5.2,29.67,SW,217,1.0,2.0,85,0.01,,,0.07,VWS V12.07,2013-02-05 12:13:00,
2013-02-05 06:14:00,8.8,5.2,29.67,SW,217,1.0,2.0,85,0.01,,,0.07,VWS V12.07,2013-02-05 12:14:00,
2013-02-05 06:15:00,8.8,5.2,29.67,SW,217,1.0,2.0,85,0.01,,,0.07,VWS V12.07,2013-02-05 12:15:00,
2013-02-05 06:17:00,9.0,5.7,29.67,SW,217,0.0,2.0,86,0.00,,,0.07,VWS V12.07,2013-02-05 12:17:00,
2013-02-05 06:18:00,9.0,5.7,29.67,SW,216,0.0,2.0,86,0.00,,,0.07,VWS V12.07,2013-02-05 12:18:00,
2013-02-05 06:19:00,9.0,5.7,29.67,SW,217,0.0,2.0,86,0.00,,,0.07,VWS V12.07,2013-02-05 12:19:00,
2013-02-05 06:20:00,9.0,5.7,29.67,SW,217,0.0,2.0,86,0.00,,,0.07,VWS V12.07,2013-02-05 12:20:00,
2013-02-05 06:22:00,9.0,5.7,29.67,SW,216,1.0,2.0,86,0.00,,,0.07,VWS V12.07,2013-02-05 12:22:00,
2013-02-05 06:23:00,9.0,5.7,29.67,SW,228,1.0,3.0,86,0.00,,,0.07,VWS V12.07,2013-02-05 12:23:00,
2013-02-05 06:25:00,9.0,5.7,29.67,SSW,205,0.0,3.0,86,0.00,,,0.07,VWS V12.07,2013-02-05 12:25:00,
2013-02-05 06:28:00,9.0,5.7,29.67,SSW,205,1.0,3.0,86,0.00,,,0.07,VWS V12.07,2013-02-05 12:28:00,
2013-02-05 06:29:00,9.0,5.7,29.67,SSW,205,1.0,1.0,86,0.00,,,0.07,VWS V12.07,2013-02-05 12:29:00,
2013-02-05 06:30:00,9.0,5.7,29.67,SSW,205,0.0,2.0,86,0.00,,,0.07,VWS V12.07,2013-02-05 12:30:00,
2013-02-05 06:33:00,9.0,5.7,29.67,SSW,205,1.0,2.0,86,0.00,,,0.07,VWS V12.07,2013-02-05 12:33:00,
2013-02-05 06:34:00,9.0,5.7,29.67,SSW,205,1.0,2.0,86,0.00,,,0.07,VWS V12.07,2013-02-05 12:34:00,
2013-02-05 06:35:00,9.2,5.9,29.67,SSW,205,1.0,2.0,86,0.00,,,0.07,VWS V12.07,2013-02-05 12:35:00,
2013-02-05 06:38:00,9.2,5.9,29.67,SW,219,1.0,3.0,86,0.00,,,0.07,VWS V12.07,2013-02-05 12:38:00,
2013-02-05 06:39:00,9.2,5.9,29.67,SW,219,1.0,3.0,86,0.00,,,0.07,VWS V12.07,2013-02-05 12:39:00,
2013-02-05 06:40:00,9.2,5.9,29.67,SW,219,1.0,3.0,86,0.00,,,0.07,VWS V12.07,2013-02-05 12:40:00,
2013-02-05 06:41:00,9.2,5.9,29.67,SW,219,0.0,3.0,86,0.00,,,0.07,VWS V12.07,2013-02-05 12:41:00,
2013-02-05 06:43:00,9.2,5.9,29.67,SW,219,1.0,3.0,86,0.00,,,0.07,VWS V12.07,2013-02-05 12:43:00,
2013-02-05 06:44:00,9.2,5.9,29.67,SW,219,1.0,3.0,86,0.00,,,0.07,VWS V12.07,2013-02-05 12:44:00,
2013-02-05 06:46:00,9.3,6.0,29.67,SW,219,0.0,3.0,86,0.00,,,0.07,VWS V12.07,2013-02-05 12:46:00,
2013-02-05 06:48:00,9.3,6.0,29.67,SW,219,1.0,2.0,86,0.00,,,0.07,VWS V12.07,2013-02-05 12:48:00,
2013-02-05 06:49:00,9.3,6.0,29.67,SW,219,1.0,2.0,86,0.00,,,0.07,VWS V12.07,2013-02-05 12:49:00,
2013-02-05 06:51:00,9.3,6.0,29.67,SW,219,0.0,2.0,86,0.00,,,0.07,VWS V12.07,2013-02-05 12:51:00,
2013-02-05 06:53:00,9.3,6.0,29.67,SW,217,0.0,2.0,86,0.00,,,0.07,VWS V12.07,2013-02-05 12:53:00,
2013-02-05 06:54:00,9.3,6.0,29.67,SW,217,1.0,2.0,86,0.00,,,0.07,VWS V12.07,2013-02-05 12:54:00,
2013-02-05 06:56:00,9.3,6.2,29.67,SW,217,1.0,2.0,87,0.00,,,0.07,VWS V12.07,2013-02-05 12:56:00,
2013-02-05 06:58:00,9.3,6.0,29.67,SW,217,1.0,1.0,86,0.00,,,0.07,VWS V12.07,2013-02-05 12:58:00,
2013-02-05 07:00:00,9.5,6.2,29.68,SW,217,1.0,1.0,86,0.00,,,0.07,VWS V12.07,2013-02-05 13:00:00,
2013-02-05 07:01:00,9.5,6.4,29.68,SW,217,0.0,1.0,87,0.00,,,0.07,VWS V12.07,2013-02-05 13:01:00,
2013-02-05 07:04:00,9.5,6.4,29.68,SW,217,0.0,1.0,87,0.00,,,0.07,VWS V12.07,2013-02-05 13:04:00,
2013-02-05 07:06:00,9.5,6.4,29.68,SW,217,0.0,1.0,87,0.00,,,0.07,VWS V12.07,2013-02-05 13:06:00,
2013-02-05 07:09:00,9.5,6.4,29.68,SW,217,0.0,1.0,87,0.00,,,0.07,VWS V12.07,2013-02-05 13:09:00,
2013-02-05 07:11:00,9.5,6.4,29.68,SW,217,0.0,1.0,87,0.00,,,0.07,VWS V12.07,2013-02-05 13:11:00,
2013-02-05 07:14:00,9.5,6.4,29.68,SW,217,0.0,1.0,87,0.00,,,0.07,VWS V12.07,2013-02-05 13:14:00,
2013-02-05 07:16:00,9.5,6.4,29.68,SW,217,1.0,1.0,87,0.00,,,0.07,VWS V12.07,2013-02-05 13:16:00,
2013-02-05 07:20:00,9.5,6.4,29.68,SW,217,0.0,1.0,87,0.00,,,0.07,VWS V12.07,2013-02-05 13:20:00,
2013-02-05 07:21:00,9.7,6.6,29.68,SW,217,0.0,1.0,87,0.00,,,0.07,VWS V12.07,2013-02-05 13:21:00,
2013-02-05 07:22:00,9.7,6.6,29.68,SW,217,0.0,1.0,87,0.00,,,0.07,VWS V12.07,2013-02-05 13:22:00,
2013-02-05 07:25:00,9.7,6.6,29.68,SW,217,0.0,1.0,87,0.00,,,0.07,VWS V12.07,2013-02-05 13:25:00,
2013-02-05 07:27:00,9.7,6.6,29.68,SW,217,0.0,1.0,87,0.00,,,0.07,VWS V12.07,2013-02-05 13:27:00,
2013-02-05 07:30:00,9.7,6.6,29.68,SW,217,0.0,1.0,87,0.00,,,0.07,VWS V12.07,2013-02-05 13:30:00,
2013-02-05 07:32:00,9.7,6.6,29.68,SW,217,0.0,1.0,87,0.00,,,0.07,VWS V12.07,2013-02-05 13:32:00,
2013-02-05 07:33:00,9.7,6.6,29.68,SW,217,1.0,1.0,87,0.00,,,0.07,VWS V12.07,2013-02-05 13:33:00,
2013-02-05 07:35:00,9.7,6.6,29.68,SW,217,0.0,1.0,87,0.00,,,0.07,VWS V12.07,2013-02-05 13:35:00,
2013-02-05 07:37:00,9.7,6.6,29.68,SW,217,0.0,1.0,87,0.00,,,0.07,VWS V12.07,2013-02-05 13:37:00,
2013-02-05 07:38:00,9.7,6.6,29.68,SW,217,0.0,1.0,87,0.00,,,0.07,VWS V12.07,2013-02-05 13:38:00,
2013-02-05 07:40:00,9.9,6.8,29.68,SW,217,0.0,1.0,87,0.00,,,0.07,VWS V12.07,2013-02-05 13:40:00,
2013-02-05 07:42:00,9.9,6.8,29.68,SW,217,0.0,1.0,87,0.00,,,0.07,VWS V12.07,2013-02-05 13:42:00,
2013-02-05 07:44:00,9.9,6.8,29.68,SW,216,0.0,1.0,87,0.00,,,0.07,VWS V12.07,2013-02-05 13:44:00,
2013-02-05 07:46:00,9.9,6.8,29.68,SW,217,0.0,1.0,87,0.00,,,0.07,VWS V12.07,2013-02-05 13:46:00,
2013-02-05 07:47:00,9.9,6.8,29.68,SW,217,0.0,1.0,87,0.00,,,0.07,VWS V12.07,2013-02-05 13:47:00,
2013-02-05 07:48:00,9.9,6.8,29.68,SW,217,0.0,1.0,87,0.00,,,0.07,VWS V12.07,2013-02-05 13:48:00,
2013-02-05 07:50:00,9.9,6.8,29.68,SW,217,0.0,1.0,87,0.00,,,0.07,VWS V12.07,2013-02-05 13:50:00,
2013-02-05 07:51:00,9.9,6.8,29.68,SW,217,0.0,1.0,87,0.00,,,0.07,VWS V12.07,2013-02-05 13:51:00,
2013-02-05 07:52:00,9.9,6.8,29.68,SW,217,0.0,1.0,87,0.00,,,0.07,VWS V12.07,2013-02-05 13:52:00,
2013-02-05 07:53:00,9.9,6.8,29.68,SW,217,0.0,1.0,87,0.00,,,0.07,VWS V12.07,2013-02-05 13:53:00,
2013-02-05 07:55:00,9.9,6.8,29.68,SW,217,0.0,1.0,87,0.00,,,0.07,VWS V12.07,2013-02-05 13:55:00,
2013-02-05 07:56:00,9.9,6.8,29.68,SW,217,0.0,1.0,87,0.00,,,0.07,VWS V12.07,2013-02-05 13:56:00,
2013-02-05 07:57:00,10.0,6.9,29.68,SW,217,0.0,1.0,87,0.00,,,0.07,VWS V12.07,2013-02-05 13:57:00,
2013-02-05 07:58:00,10.0,6.9,29.68,SW,217,0.0,0.0,87,0.00,,,0.07,VWS V12.07,2013-02-05 13:58:00,
2013-02-05 08:00:00,10.0,6.9,29.70,SW,217,0.0,1.0,87,0.00,,,0.07,VWS V12.07,2013-02-05 14:00:00,
2013-02-05 08:01:00,10.0,6.9,29.70,SW,217,0.0,1.0,87,0.00,,,0.07,VWS V12.07,2013-02-05 14:01:00,
2013-02-05 08:02:00,10.0,6.9,29.70,SW,217,0.0,1.0,87,0.00,,,0.07,VWS V12.07,2013-02-05 14:02:00,
2013-02-05 08:04:00,10.0,6.9,29.70,SW,217,0.0,1.0,87,0.00,,,0.07,VWS V12.07,2013-02-05 14:04:00,
2013-02-05 08:05:00,10.0,6.9,29.70,SW,217,0.0,1.0,87,0.00,,,0.07,VWS V12.07,2013-02-05 14:05:00,
2013-02-05 08:06:00,10.0,6.9,29.70,SW,217,0.0,1.0,87,0.00,,,0.07,VWS V12.07,2013-02-05 14:06:00,
2013-02-05 08:08:00,10.0,6.9,29.70,SW,217,0.0,1.0,87,0.00,,,0.07,VWS V12.07,2013-02-05 14:08:00,
2013-02-05 08:09:00,10.0,6.9,29.70,SW,216,0.0,0.0,87,0.00,,,0.07,VWS V12.07,2013-02-05 14:09:00,
2013-02-05 08:10:00,10.0,6.9,29.70,SW,216,0.0,0.0,87,0.00,,,0.07,VWS V12.07,2013-02-05 14:10:00,
2013-02-05 08:11:00,10.0,6.9,29.70,SW,217,0.0,0.0,87,0.00,,,0.07,VWS V12.07,2013-02-05 14:11:00,
2013-02-05 08:13:00,10.0,6.9,29.70,SW,217,0.0,1.0,87,0.00,,,0.07,VWS V12.07,2013-02-05 14:13:00,
2013-02-05 08:15:00,10.2,7.1,29.70,SW,217,0.0,1.0,87,0.00,,,0.07,VWS V12.07,2013-02-05 14:15:00,
2013-02-05 08:16:00,10.2,7.1,29.70,SW,217,1.0,1.0,87,0.00,,,0.07,VWS V12.07,2013-02-05 14:16:00,
2013-02-05 08:18:00,10.2,7.1,29.70,SW,217,0.0,1.0,87,0.00,,,0.07,VWS V12.07,2013-02-05 14:18:00,
2013-02-05 08:20:00,10.2,7.1,29.70,SW,217,0.0,1.0,87,0.00,,,0.07,VWS V12.07,2013-02-05 14:20:00,
2013-02-05 08:21:00,10.2,7.1,29.70,SW,217,0.0,1.0,87,0.00,,,0.07,VWS V12.07,2013-02-05 14:21:00,
2013-02-05 08:23:00,10.2,7.1,29.70,SW,217,0.0,1.0,87,0.00,,,0.07,VWS V12.07,2013-02-05 14:23:00,
2013-02-05 08:25:00,10.4,7.3,29.70,SW,217,0.0,1.0,87,0.00,,,0.07,VWS V12.07,2013-02-05 14:25:00,
2013-02-05 08:26:00,10.4,7.3,29.70,SW,216,0.0,1.0,87,0.00,,,0.07,VWS V12.07,2013-02-05 14:26:00,
2013-02-05 08:28:00,10.4,7.3,29.70,SW,217,0.0,1.0,87,0.00,,,0.07,VWS V12.07,2013-02-05 14:28:00,
2013-02-05 08:30:00,10.4,7.3,29.70,SW,217,0.0,1.0,87,0.00,,,0.07,VWS V12.07,2013-02-05 14:30:00,
2013-02-05 08:31:00,10.4,7.3,29.70,SW,217,0.0,1.0,87,0.00,,,0.07,VWS V12.07,2013-02-05 14:31:00,
2013-02-05 08:33:00,10.4,7.3,29.70,SW,217,0.0,1.0,87,0.00,,,0.07,VWS V12.07,2013-02-05 14:33:00,
2013-02-05 08:36:00,10.5,7.4,29.70,SW,217,0.0,1.0,87,0.00,,,0.07,VWS V12.07,2013-02-05 14:36:00,
2013-02-05 08:37:00,10.5,7.4,29.70,SW,216,0.0,1.0,87,0.00,,,0.07,VWS V12.07,2013-02-05 14:37:00,
2013-02-05 08:38:00,10.5,7.4,29.70,SW,217,0.0,1.0,87,0.00,,,0.07,VWS V12.07,2013-02-05 14:38:00,
2013-02-05 08:41:00,10.5,7.4,29.70,SW,217,0.0,1.0,87,0.00,,,0.07,VWS V12.07,2013-02-05 14:41:00,
2013-02-05 08:42:00,10.5,7.4,29.70,SW,217,0.0,1.0,87,0.00,,,0.07,VWS V12.07,2013-02-05 14:42:00,
2013-02-05 08:44:00,10.5,7.4,29.70,SW,217,0.0,1.0,87,0.00,,,0.07,VWS V12.07,2013-02-05 14:44:00,
2013-02-05 08:47:00,10.7,7.6,29.70,SW,217,0.0,1.0,87,0.00,,,0.07,VWS V12.07,2013-02-05 14:47:00,
2013-02-05 08:49:00,10.7,7.6,29.70,SW,217,0.0,0.0,87,0.00,,,0.07,VWS V12.07,2013-02-05 14:49:00,
2013-02-05 08:52:00,10.7,7.6,29.70,SW,216,0.0,1.0,87,0.00,,,0.07,VWS V12.07,2013-02-05 14:52:00,
2013-02-05 08:55:00,10.7,7.6,29.70,SW,217,0.0,1.0,87,0.00,,,0.07,VWS V12.07,2013-02-05 14:55:00,
2013-02-05 08:57:00,10.7,7.6,29.70,SW,217,1.0,1.0,87,0.00,,,0.07,VWS V12.07,2013-02-05 14:57:00,
2013-02-05 09:00:00,10.7,7.6,29.70,SW,217,0.0,1.0,87,0.00,,,0.07,VWS V12.07,2013-02-05 15:00:00,
2013-02-05 09:03:00,10.7,7.6,29.70,SW,217,0.0,1.0,87,0.00,,,0.07,VWS V12.07,2013-02-05 15:03:00,
2013-02-05 09:06:00,10.9,7.8,29.70,SW,217,0.0,1.0,87,0.00,,,0.07,VWS V12.07,2013-02-05 15:06:00,
2013-02-05 09:08:00,10.9,7.8,29.70,SW,217,0.0,1.0,87,0.00,,,0.07,VWS V12.07,2013-02-05 15:08:00,
2013-02-05 09:11:00,10.9,7.8,29.70,SW,217,0.0,0.0,87,0.00,,,0.07,VWS V12.07,2013-02-05 15:11:00,
2013-02-05 09:13:00,11.1,8.0,29.70,SW,217,0.0,0.0,87,0.00,,,0.07,VWS V12.07,2013-02-05 15:13:00,
2013-02-05 09:14:00,11.1,8.0,29.70,SW,217,0.0,0.0,87,0.00,,,0.07,VWS V12.07,2013-02-05 15:14:00,
2013-02-05 09:16:00,11.1,8.0,29.71,SW,217,0.0,0.0,87,0.00,,,0.07,VWS V12.07,2013-02-05 15:16:00,
2013-02-05 09:18:00,11.2,8.1,29.71,SW,217,0.0,0.0,87,0.00,,,0.07,VWS V12.07,2013-02-05 15:18:00,
2013-02-05 09:19:00,11.2,8.1,29.71,SW,217,0.0,0.0,87,0.00,,,0.07,VWS V12.07,2013-02-05 15:19:00,
2013-02-05 09:21:00,11.2,8.1,29.71,SW,217,0.0,0.0,87,0.00,,,0.07,VWS V12.07,2013-02-05 15:21:00,
2013-02-05 09:23:00,11.2,8.1,29.71,SW,217,0.0,0.0,87,0.00,,,0.07,VWS V12.07,2013-02-05 15:23:00,
2013-02-05 09:24:00,11.2,8.1,29.71,SW,217,0.0,0.0,87,0.00,,,0.07,VWS V12.07,2013-02-05 15:24:00,
2013-02-05 09:26:00,11.2,8.1,29.71,SW,216,0.0,0.0,87,0.00,,,0.07,VWS V12.07,2013-02-05 15:26:00,
2013-02-05 09:28:00,11.2,8.1,29.71,SW,217,0.0,0.0,87,0.00,,,0.07,VWS V12.07,2013-02-05 15:28:00,
2013-02-05 09:29:00,11.2,8.1,29.71,SW,216,0.0,0.0,87,0.00,,,0.07,VWS V12.07,2013-02-05 15:29:00,
2013-02-05 09:32:00,11.4,8.3,29.72,SW,217,0.0,0.0,87,0.00,,,0.07,VWS V12.07,2013-02-05 15:32:00,
2013-02-05 09:33:00,11.4,8.3,29.72,SW,217,0.0,0.0,87,0.00,,,0.07,VWS V12.07,2013-02-05 15:33:00,
2013-02-05 09:34:00,11.4,8.3,29.72,SW,217,0.0,0.0,87,0.00,,,0.07,VWS V12.07,2013-02-05 15:34:00,
2013-02-05 09:37:00,11.6,8.7,29.72,SW,217,0.0,1.0,88,0.00,,,0.07,VWS V12.07,2013-02-05 15:37:00,
2013-02-05 09:38:00,11.6,8.7,29.72,SW,217,0.0,1.0,88,0.00,,,0.07,VWS V12.07,2013-02-05 15:38:00,
2013-02-05 09:39:00,11.6,8.7,29.72,SW,217,0.0,1.0,88,0.00,,,0.07,VWS V12.07,2013-02-05 15:39:00,
2013-02-05 09:40:00,11.6,8.7,29.72,SW,217,0.0,1.0,88,0.00,,,0.07,VWS V12.07,2013-02-05 15:40:00,
2013-02-05 09:42:00,11.6,8.7,29.72,SW,217,0.0,1.0,88,0.00,,,0.07,VWS V12.07,2013-02-05 15:42:00,
2013-02-05 09:43:00,11.7,8.8,29.72,SW,217,0.0,1.0,88,0.00,,,0.07,VWS V12.07,2013-02-05 15:43:00,
2013-02-05 09:44:00,11.7,8.8,29.72,SW,217,0.0,1.0,88,0.00,,,0.07,VWS V12.07,2013-02-05 15:44:00,
2013-02-05 09:45:00,11.7,8.8,29.71,SW,217,0.0,1.0,88,0.00,,,0.07,VWS V12.07,2013-02-05 15:45:00,
2013-02-05 09:48:00,11.7,8.8,29.71,SW,217,0.0,1.0,88,0.00,,,0.07,VWS V12.07,2013-02-05 15:48:00,
2013-02-05 09:49:00,11.9,9.0,29.71,SW,217,0.0,0.0,88,0.00,,,0.07,VWS V12.07,2013-02-05 15:49:00,
2013-02-05 09:50:00,11.9,9.0,29.71,SW,217,0.0,0.0,88,0.00,,,0.07,VWS V12.07,2013-02-05 15:50:00,
2013-02-05 09:53:00,12.1,9.2,29.71,SW,217,0.0,0.0,88,0.00,,,0.07,VWS V12.07,2013-02-05 15:53:00,
2013-02-05 09:54:00,12.1,9.2,29.71,SW,217,0.0,0.0,88,0.00,,,0.07,VWS V12.07,2013-02-05 15:54:00,
2013-02-05 09:55:00,12.1,9.2,29.71,SW,217,0.0,0.0,88,0.00,,,0.07,VWS V12.07,2013-02-05 15:55:00,
2013-02-05 09:58:00,12.1,9.2,29.71,SW,217,0.0,0.0,88,0.00,,,0.07,VWS V12.07,2013-02-05 15:58:00,
2013-02-05 10:00:00,12.4,9.5,29.72,SW,217,0.0,0.0,88,0.00,,,0.07,VWS V12.07,2013-02-05 16:00:00,
2013-02-05 10:01:00,12.4,9.5,29.72,SW,216,0.0,0.0,88,0.00,,,0.07,VWS V12.07,2013-02-05 16:01:00,
2013-02-05 10:03:00,12.6,9.7,29.72,SW,217,0.0,0.0,88,0.00,,,0.07,VWS V12.07,2013-02-05 16:03:00,
2013-02-05 10:05:00,12.8,9.9,29.72,SW,217,0.0,0.0,88,0.00,,,0.07,VWS V12.07,2013-02-05 16:05:00,
2013-02-05 10:06:00,12.8,9.9,29.72,SW,216,0.0,1.0,88,0.00,,,0.07,VWS V12.07,2013-02-05 16:06:00,
2013-02-05 10:08:00,12.9,10.0,29.72,SW,217,0.0,1.0,88,0.00,,,0.07,VWS V12.07,2013-02-05 16:08:00,
2013-02-05 10:10:00,13.1,10.2,29.72,SW,217,0.0,1.0,88,0.00,,,0.07,VWS V12.07,2013-02-05 16:10:00,
2013-02-05 10:11:00,13.1,10.2,29.72,SW,217,0.0,1.0,88,0.00,,,0.07,VWS V12.07,2013-02-05 16:11:00,
2013-02-05 10:14:00,13.5,10.9,29.72,SW,217,0.0,1.0,89,0.00,,,0.07,VWS V12.07,2013-02-05 16:14:00,
2013-02-05 10:15:00,13.5,10.9,29.72,SW,217,0.0,1.0,89,0.00,,,0.07,VWS V12.07,2013-02-05 16:15:00,
2013-02-05 10:16:00,13.6,11.0,29.72,SW,217,0.0,1.0,89,0.00,,,0.07,VWS V12.07,2013-02-05 16:16:00,
2013-02-05 10:19:00,14.0,11.4,29.72,SW,217,0.0,2.0,89,0.00,,,0.07,VWS V12.07,2013-02-05 16:19:00,
2013-02-05 10:20:00,14.1,11.5,29.72,SE,126,1.0,2.0,89,0.00,,,0.07,VWS V12.07,2013-02-05 16:20:00,
2013-02-05 10:21:00,14.1,11.5,29.72,SE,126,0.0,2.0,89,0.00,,,0.07,VWS V12.07,2013-02-05 16:21:00,
2013-02-05 10:24:00,14.6,11.9,29.72,SE,126,0.0,2.0,89,0.00,,,0.07,VWS V12.07,2013-02-05 16:24:00,
2013-02-05 10:25:00,14.6,11.9,29.72,SE,126,0.0,2.0,89,0.00,,,0.07,VWS V12.07,2013-02-05 16:25:00,
2013-02-05 10:26:00,14.8,12.1,29.72,SE,126,0.0,2.0,89,0.00,,,0.07,VWS V12.07,2013-02-05 16:26:00,
2013-02-05 10:27:00,14.8,12.1,29.72,SE,126,1.0,2.0,89,0.00,,,0.07,VWS V12.07,2013-02-05 16:27:00,
2013-02-05 10:29:00,14.9,12.0,29.72,West,271,0.0,6.0,88,0.00,,,0.07,VWS V12.07,2013-02-05 16:29:00,
2013-02-05 10:30:00,15.1,12.2,29.72,West,271,0.0,6.0,88,0.00,,,0.07,VWS V12.07,2013-02-05 16:30:00,
2013-02-05 10:31:00,15.1,12.2,29.72,West,271,0.0,6.0,88,0.00,,,0.07,VWS V12.07,2013-02-05 16:31:00,
2013-02-05 10:32:00,15.1,12.2,29.72,West,271,0.0,6.0,88,0.00,,,0.07,VWS V12.07,2013-02-05 16:32:00,
2013-02-05 10:34:00,15.1,12.2,29.72,NNE,13,3.0,6.0,88,0.00,,,0.07,VWS V12.07,2013-02-05 16:34:00,
2013-02-05 10:36:00,15.2,12.3,29.72,SSW,193,0.0,6.0,88,0.00,,,0.07,VWS V12.07,2013-02-05 16:36:00,
2013-02-05 10:37:00,15.2,12.3,29.72,SSW,193,0.0,6.0,88,0.00,,,0.07,VWS V12.07,2013-02-05 16:37:00,
2013-02-05 10:39:00,15.4,12.2,29.72,SSW,194,1.0,1.0,87,0.00,,,0.07,VWS V12.07,2013-02-05 16:39:00,
2013-02-05 10:41:00,15.4,12.2,29.72,SSW,199,0.0,2.0,87,0.00,,,0.07,VWS V12.07,2013-02-05 16:41:00,
2013-02-05 10:42:00,15.6,12.4,29.72,NNE,28,3.0,3.0,87,0.00,,,0.07,VWS V12.07,2013-02-05 16:42:00,
2013-02-05 10:45:00,15.6,12.4,29.73,WNW,287,1.0,3.0,87,0.00,,,0.07,VWS V12.07,2013-02-05 16:45:00,
2013-02-05 10:46:00,15.6,12.4,29.73,WNW,290,0.0,3.0,87,0.00,,,0.07,VWS V12.07,2013-02-05 16:46:00,
2013-02-05 10:47:00,15.6,12.2,29.73,WNW,290,0.0,3.0,86,0.00,,,0.07,VWS V12.07,2013-02-05 16:47:00,
2013-02-05 10:48:00,15.6,12.2,29.73,WNW,290,0.0,3.0,86,0.00,,,0.07,VWS V12.07,2013-02-05 16:48:00,
2013-02-05 10:51:00,15.7,12.3,29.73,WNW,290,1.0,2.0,86,0.00,,,0.07,VWS V12.07,2013-02-05 16:51:00,
2013-02-05 10:52:00,15.7,12.3,29.73,WNW,290,0.0,2.0,86,0.00,,,0.07,VWS V12.07,2013-02-05 16:52:00,
2013-02-05 10:53:00,15.7,12.3,29.73,NNE,30,1.0,2.0,86,0.00,,,0.07,VWS V12.07,2013-02-05 16:53:00,
2013-02-05 10:56:00,15.9,12.5,29.73,NNE,30,0.0,2.0,86,0.00,,,0.07,VWS V12.07,2013-02-05 16:56:00,
2013-02-05 10:57:00,15.9,12.5,29.73,NNW,345,2.0,3.0,86,0.00,,,0.07,VWS V12.07,2013-02-05 16:57:00,
2013-02-05 10:58:00,15.9,12.2,29.73,NW,315,1.0,3.0,85,0.00,,,0.07,VWS V12.07,2013-02-05 16:58:00,
2013-02-05 11:01:00,15.9,12.2,29.73,NW,315,1.0,3.0,85,0.00,,,0.07,VWS V12.07,2013-02-05 17:01:00,
2013-02-05 11:02:00,15.9,12.2,29.73,WSW,254,0.0,3.0,85,0.00,,,0.07,VWS V12.07,2013-02-05 17:02:00,
2013-02-05 11:03:00,15.9,12.2,29.73,WSW,254,0.0,3.0,85,0.00,,,0.07,VWS V12.07,2013-02-05 17:03:00,
2013-02-05 11:06:00,15.9,12.2,29.73,North,9,0.0,3.0,85,0.00,,,0.07,VWS V12.07,2013-02-05 17:06:00,
2013-02-05 11:07:00,16.1,12.4,29.73,North,9,0.0,3.0,85,0.00,,,0.07,VWS V12.07,2013-02-05 17:07:00,
2013-02-05 11:08:00,16.1,12.4,29.73,North,9,0.0,1.0,85,0.00,,,0.07,VWS V12.07,2013-02-05 17:08:00,
2013-02-05 11:11:00,16.2,12.5,29.73,North,8,1.0,1.0,85,0.00,,,0.07,VWS V12.07,2013-02-05 17:11:00,
2013-02-05 11:12:00,16.2,12.2,29.73,NW,315,1.0,2.0,84,0.00,,,0.07,VWS V12.07,2013-02-05 17:12:00,
2013-02-05 11:13:00,16.2,12.2,29.73,WSW,258,0.0,2.0,84,0.00,,,0.07,VWS V12.07,2013-02-05 17:13:00,
2013-02-05 11:14:00,16.2,12.2,29.73,WSW,258,0.0,2.0,84,0.00,,,0.07,VWS V12.07,2013-02-05 17:14:00,
2013-02-05 11:16:00,16.1,11.9,29.74,West,263,0.0,2.0,83,0.00,,,0.07,VWS V12.07,2013-02-05 17:16:00,
2013-02-05 11:17:00,16.1,11.9,29.74,North,0,1.0,2.0,83,0.00,,,0.07,VWS V12.07,2013-02-05 17:17:00,
2013-02-05 11:18:00,16.2,12.0,29.74,North,0,0.0,2.0,83,0.00,,,0.07,VWS V12.07,2013-02-05 17:18:00,
2013-02-05 11:19:00,16.2,12.0,29.74,ENE,58,1.0,2.0,83,0.00,,,0.07,VWS V12.07,2013-02-05 17:19:00,
2013-02-05 11:21:00,16.4,12.4,29.74,East,84,1.0,2.0,84,0.00,,,0.07,VWS V12.07,2013-02-05 17:21:00,
2013-02-05 11:22:00,16.4,12.4,29.74,WNW,294,1.0,4.0,84,0.00,,,0.07,VWS V12.07,2013-02-05 17:22:00,
2013-02-05 11:23:00,16.4,12.1,29.74,WNW,290,3.0,4.0,83,0.00,,,0.07,VWS V12.07,2013-02-05 17:23:00,
2013-02-05 11:24:00,16.2,12.0,29.74,WNW,290,0.0,4.0,83,0.00,,,0.07,VWS V12.07,2013-02-05 17:24:00,
2013-02-05 11:26:00,16.4,12.1,29.74,WNW,290,1.0,4.0,83,0.00,,,0.07,VWS V12.07,2013-02-05 17:26:00,
2013-02-05 11:27:00,16.4,12.1,29.74,WNW,288,0.0,4.0,83,0.00,,,0.07,VWS V12.07,2013-02-05 17:27:00,
2013-02-05 11:28:00,16.4,12.1,29.74,NW,319,1.0,2.0,83,0.00,,,0.07,VWS V12.07,2013-02-05 17:28:00,
2013-02-05 11:29:00,16.4,11.9,29.74,NW,319,0.0,2.0,82,0.00,,,0.07,VWS V12.07,2013-02-05 17:29:00,
2013-02-05 11:32:00,16.5,12.2,29.75,WSW,239,1.0,2.0,83,0.00,,,0.07,VWS V12.07,2013-02-05 17:32:00,
2013-02-05 11:33:00,16.5,12.2,29.75,WSW,239,0.0,2.0,83,0.00,,,0.07,VWS V12.07,2013-02-05 17:33:00,
2013-02-05 11:34:00,16.5,12.2,29.75,North,0,2.0,3.0,83,0.00,,,0.07,VWS V12.07,2013-02-05 17:34:00,
2013-02-05 11:37:00,16.7,12.2,29.75,North,1,0.0,3.0,82,0.00,,,0.07,VWS V12.07,2013-02-05 17:37:00,
2013-02-05 11:38:00,16.9,12.4,29.75,North,1,0.0,3.0,82,0.00,,,0.07,VWS V12.07,2013-02-05 17:38:00,
2013-02-05 11:39:00,16.9,12.4,29.75,North,1,1.0,1.0,82,0.00,,,0.07,VWS V12.07,2013-02-05 17:39:00,
2013-02-05 11:42:00,17.2,12.7,29.75,North,358,1.0,2.0,82,0.00,,,0.07,VWS V12.07,2013-02-05 17:42:00,
2013-02-05 11:43:00,17.2,12.7,29.75,North,358,0.0,2.0,82,0.00,,,0.07,VWS V12.07,2013-02-05 17:43:00,
2013-02-05 11:44:00,17.2,12.4,29.75,North,358,0.0,3.0,81,0.00,,,0.07,VWS V12.07,2013-02-05 17:44:00,
2013-02-05 11:47:00,17.2,12.1,29.74,West,262,1.0,3.0,80,0.00,,,0.07,VWS V12.07,2013-02-05 17:47:00,
2013-02-05 11:48:00,17.2,12.1,29.74,West,262,0.0,3.0,80,0.00,,,0.07,VWS V12.07,2013-02-05 17:48:00,
2013-02-05 11:49:00,17.2,12.1,29.74,West,262,1.0,2.0,80,0.00,,,0.07,VWS V12.07,2013-02-05 17:49:00,
2013-02-05 11:50:00,17.2,12.1,29.74,West,262,0.0,2.0,80,0.00,,,0.07,VWS V12.07,2013-02-05 17:50:00,
2013-02-05 11:53:00,17.2,12.1,29.74,NW,314,1.0,2.0,80,0.00,,,0.07,VWS V12.07,2013-02-05 17:53:00,
2013-02-05 11:54:00,17.2,12.1,29.74,WNW,293,1.0,2.0,80,0.00,,,0.07,VWS V12.07,2013-02-05 17:54:00,
2013-02-05 11:55:00,17.2,12.1,29.74,WNW,293,0.0,2.0,80,0.00,,,0.07,VWS V12.07,2013-02-05 17:55:00,
2013-02-05 11:58:00,17.2,12.1,29.74,NNE,20,1.0,3.0,80,0.00,,,0.07,VWS V12.07,2013-02-05 17:58:00,
2013-02-05 11:59:00,17.2,12.1,29.74,NW,311,2.0,3.0,80,0.00,,,0.07,VWS V12.07,2013-02-05 17:59:00,
2013-02-05 12:00:00,17.2,11.8,29.75,NW,311,2.0,3.0,79,0.00,,,0.07,VWS V12.07,2013-02-05 18:00:00,
2013-02-05 12:03:00,17.0,11.6,29.75,North,0,1.0,3.0,79,0.00,,,0.07,VWS V12.07,2013-02-05 18:03:00,
2013-02-05 12:04:00,17.0,11.3,29.75,NW,320,0.0,0.0,78,0.00,,,0.07,VWS V12.07,2013-02-05 18:04:00,
2013-02-05 12:05:00,16.9,11.2,29.75,NNW,333,2.0,3.0,78,0.00,,,0.07,VWS V12.07,2013-02-05 18:05:00,
2013-02-05 12:08:00,16.9,11.2,29.75,NNW,334,1.0,3.0,78,0.00,,,0.07,VWS V12.07,2013-02-05 18:08:00,
2013-02-05 12:09:00,16.9,11.5,29.75,North,10,1.0,4.0,79,0.00,,,0.07,VWS V12.07,2013-02-05 18:09:00,
2013-02-05 12:10:00,16.9,11.2,29.75,North,10,0.0,4.0,78,0.00,,,0.07,VWS V12.07,2013-02-05 18:10:00,
2013-02-05 12:13:00,16.9,11.5,29.75,WNW,295,1.0,4.0,79,0.00,,,0.07,VWS V12.07,2013-02-05 18:13:00,
2013-02-05 12:14:00,16.9,11.5,29.75,WNW,295,0.0,4.0,79,0.00,,,0.07,VWS V12.07,2013-02-05 18:14:00,
2013-02-05 12:15:00,16.9,11.5,29.76,North,351,1.0,4.0,79,0.00,,,0.07,VWS V12.07,2013-02-05 18:15:00,
2013-02-05 12:18:00,17.0,11.6,29.76,North,11,3.0,4.0,79,0.00,,,0.07,VWS V12.07,2013-02-05 18:18:00,
2013-02-05 12:20:00,16.9,11.2,29.76,WNW,295,2.0,7.0,78,0.00,,,0.07,VWS V12.07,2013-02-05 18:20:00,
2013-02-05 12:21:00,16.9,11.2,29.76,North,2,2.0,7.0,78,0.00,,,0.07,VWS V12.07,2013-02-05 18:21:00,
2013-02-05 12:23:00,16.9,11.2,29.76,West,274,1.0,7.0,78,0.00,,,0.07,VWS V12.07,2013-02-05 18:23:00,
2013-02-05 12:25:00,16.7,11.1,29.76,NW,320,0.0,7.0,78,0.00,,,0.07,VWS V12.07,2013-02-05 18:25:00,
2013-02-05 12:26:00,16.7,11.1,29.76,NW,320,0.0,7.0,78,0.00,,,0.07,VWS V12.07,2013-02-05 18:26:00,
2013-02-05 12:28:00,16.7,11.1,29.76,West,272,0.0,2.0,78,0.00,,,0.07,VWS V12.07,2013-02-05 18:28:00,
2013-02-05 12:29:00,16.7,11.1,29.76,West,272,0.0,2.0,78,0.00,,,0.07,VWS V12.07,2013-02-05 18:29:00,
2013-02-05 12:30:00,16.5,10.9,29.76,NW,323,1.0,3.0,78,0.00,,,0.07,VWS V12.07,2013-02-05 18:30:00,
2013-02-05 12:31:00,16.5,10.9,29.76,SW,219,1.0,3.0,78,0.00,,,0.07,VWS V12.07,2013-02-05 18:31:00,
2013-02-05 12:33:00,16.7,11.3,29.76,SW,225,0.0,3.0,79,0.00,,,0.07,VWS V12.07,2013-02-05 18:33:00,
2013-02-05 12:34:00,16.7,11.3,29.76,SW,225,0.0,3.0,79,0.00,,,0.07,VWS V12.07,2013-02-05 18:34:00,
2013-02-05 12:35:00,16.7,11.3,29.76,WSW,246,0.0,3.0,79,0.00,,,0.07,VWS V12.07,2013-02-05 18:35:00,
2013-02-05 12:36:00,16.9,11.5,29.76,WSW,246,1.0,3.0,79,0.00,,,0.07,VWS V12.07,2013-02-05 18:36:00,
2013-02-05 12:38:00,17.0,11.6,29.76,WSW,246,0.0,1.0,79,0.00,,,0.07,VWS V12.07,2013-02-05 18:38:00,
2013-02-05 12:39:00,17.2,12.1,29.76,WSW,246,0.0,1.0,80,0.00,,,0.07,VWS V12.07,2013-02-05 18:39:00,
2013-02-05 12:41:00,17.3,11.9,29.76,West,262,0.0,4.0,79,0.00,,,0.07,VWS V12.07,2013-02-05 18:41:00,
2013-02-05 12:44:00,17.7,12.3,29.76,NW,306,1.0,4.0,79,0.00,,,0.07,VWS V12.07,2013-02-05 18:44:00,
2013-02-05 12:46:00,18.0,12.0,29.76,WSW,243,1.0,4.0,77,0.00,,,0.07,VWS V12.07,2013-02-05 18:46:00,
2013-02-05 12:49:00,18.1,11.2,29.76,West,266,0.0,3.0,74,0.00,,,0.07,VWS V12.07,2013-02-05 18:49:00,
2013-02-05 12:51:00,18.1,11.8,29.76,SSW,200,2.0,4.0,76,0.00,,,0.07,VWS V12.07,2013-02-05 18:51:00,
2013-02-05 12:54:00,18.4,12.1,29.76,WNW,303,0.0,4.0,76,0.00,,,0.07,VWS V12.07,2013-02-05 18:54:00,
2013-02-05 12:56:00,18.4,11.5,29.76,West,278,1.0,6.0,74,0.00,,,0.07,VWS V12.07,2013-02-05 18:56:00,
2013-02-05 12:59:00,18.3,11.4,29.76,West,281,3.0,4.0,74,0.00,,,0.07,VWS V12.07,2013-02-05 18:59:00,
2013-02-05 13:01:00,18.1,10.9,29.77,WNW,291,0.0,4.0,73,0.00,,,0.07,VWS V12.07,2013-02-05 19:01:00,
2013-02-05 13:04:00,18.1,11.5,29.77,NW,307,0.0,4.0,75,0.00,,,0.07,VWS V12.07,2013-02-05 19:04:00,
2013-02-05 13:05:00,18.3,11.7,29.77,NW,318,1.0,4.0,75,0.00,,,0.07,VWS V12.07,2013-02-05 19:05:00,
2013-02-05 13:06:00,18.1,11.2,29.77,North,352,0.0,4.0,74,0.00,,,0.07,VWS V12.07,2013-02-05 19:06:00,
2013-02-05 13:07:00,18.1,11.2,29.77,North,353,1.0,4.0,74,0.00,,,0.07,VWS V12.07,2013-02-05 19:07:00,
2013-02-05 13:10:00,18.3,12.0,29.77,NNE,16,2.0,3.0,76,0.00,,,0.07,VWS V12.07,2013-02-05 19:10:00,
2013-02-05 13:11:00,18.3,11.7,29.77,WSW,238,0.0,3.0,75,0.00,,,0.07,VWS V12.07,2013-02-05 19:11:00,
2013-02-05 13:12:00,18.3,11.7,29.77,WSW,238,1.0,3.0,75,0.00,,,0.07,VWS V12.07,2013-02-05 19:12:00,
2013-02-05 13:15:00,18.3,11.7,29.77,WSW,241,0.0,3.0,75,0.00,,,0.07,VWS V12.07,2013-02-05 19:15:00,
2013-02-05 13:16:00,18.3,11.7,29.77,WSW,241,0.0,3.0,75,0.00,,,0.07,VWS V12.07,2013-02-05 19:16:00,
2013-02-05 13:17:00,18.4,11.8,29.77,West,266,2.0,3.0,75,0.00,,,0.07,VWS V12.07,2013-02-05 19:17:00,
2013-02-05 13:20:00,18.4,11.8,29.77,ESE,117,0.0,2.0,75,0.00,,,0.07,VWS V12.07,2013-02-05 19:20:00,
2013-02-05 13:22:00,18.6,12.3,29.77,NE,46,2.0,3.0,76,0.00,,,0.07,VWS V12.07,2013-02-05 19:22:00,
2013-02-05 13:25:00,18.6,12.0,29.77,NW,321,2.0,3.0,75,0.00,,,0.07,VWS V12.07,2013-02-05 19:25:00,
2013-02-05 13:27:00,18.4,11.5,29.77,NW,323,0.0,3.0,74,0.00,,,0.07,VWS V12.07,2013-02-05 19:27:00,
2013-02-05 13:28:00,18.4,11.8,29.77,NW,323,1.0,3.0,75,0.00,,,0.07,VWS V12.07,2013-02-05 19:28:00,
2013-02-05 13:30:00,18.4,11.8,29.78,WSW,256,2.0,3.0,75,0.00,,,0.07,VWS V12.07,2013-02-05 19:30:00,
2013-02-05 13:31:00,18.4,11.8,29.78,WSW,256,1.0,3.0,75,0.00,,,0.07,VWS V12.07,2013-02-05 19:31:00,
2013-02-05 13:32:00,18.4,11.8,29.78,WSW,256,0.0,3.0,75,0.00,,,0.07,VWS V12.07,2013-02-05 19:32:00,
2013-02-05 13:33:00,18.4,12.1,29.78,WSW,256,0.0,3.0,76,0.00,,,0.07,VWS V12.07,2013-02-05 19:33:00,
2013-02-05 13:36:00,18.6,12.0,29.78,WNW,292,1.0,4.0,75,0.00,,,0.07,VWS V12.07,2013-02-05 19:36:00,
2013-02-05 13:37:00,18.6,12.3,29.78,WNW,299,0.0,4.0,76,0.00,,,0.07,VWS V12.07,2013-02-05 19:37:00,
2013-02-05 13:38:00,18.6,12.0,29.78,WNW,299,1.0,4.0,75,0.00,,,0.07,VWS V12.07,2013-02-05 19:38:00,
2013-02-05 13:41:00,18.6,12.0,29.78,NW,309,1.0,4.0,75,0.00,,,0.07,VWS V12.07,2013-02-05 19:41:00,
2013-02-05 13:42:00,18.6,12.0,29.78,WNW,292,1.0,4.0,75,0.00,,,0.07,VWS V12.07,2013-02-05 19:42:00,
2013-02-05 13:43:00,18.6,11.7,29.78,WNW,292,1.0,4.0,74,0.00,,,0.07,VWS V12.07,2013-02-05 19:43:00,
2013-02-05 13:46:00,18.4,11.5,29.79,NNE,31,1.0,4.0,74,0.00,,,0.07,VWS V12.07,2013-02-05 19:46:00,
2013-02-05 13:48:00,18.4,11.5,29.79,WSW,243,0.0,4.0,74,0.00,,,0.07,VWS V12.07,2013-02-05 19:48:00,
2013-02-05 13:51:00,18.4,11.5,29.79,WSW,238,1.0,3.0,74,0.00,,,0.07,VWS V12.07,2013-02-05 19:51:00,
2013-02-05 13:53:00,18.6,12.0,29.79,WSW,238,0.0,3.0,75,0.00,,,0.07,VWS V12.07,2013-02-05 19:53:00,
2013-02-05 13:56:00,18.8,12.2,29.79,SW,218,2.0,4.0,75,0.00,,,0.07,VWS V12.07,2013-02-05 19:56:00,
2013-02-05 13:58:00,18.8,12.2,29.79,NE,41,2.0,4.0,75,0.00,,,0.07,VWS V12.07,2013-02-05 19:58:00,
2013-02-05 14:01:00,18.8,11.9,29.79,NNE,17,2.0,4.0,74,0.00,,,0.07,VWS V12.07,2013-02-05 20:01:00,
2013-02-05 14:02:00,18.8,11.9,29.79,NNE,17,0.0,4.0,74,0.00,,,0.07,VWS V12.07,2013-02-05 20:02:00,
2013-02-05 14:03:00,18.8,11.9,29.79,NNE,17,1.0,4.0,74,0.00,,,0.07,VWS V12.07,2013-02-05 20:03:00,
2013-02-05 14:05:00,18.8,12.2,29.79,NE,38,2.0,4.0,75,0.00,,,0.07,VWS V12.07,2013-02-05 20:05:00,
2013-02-05 14:06:00,18.8,11.9,29.79,NNE,18,0.0,4.0,74,0.00,,,0.07,VWS V12.07,2013-02-05 20:06:00,
2013-02-05 14:07:00,18.9,12.0,29.79,ESE,114,3.0,4.0,74,0.00,,,0.07,VWS V12.07,2013-02-05 20:07:00,
2013-02-05 14:08:00,18.9,12.0,29.79,WSW,252,3.0,0.0,74,0.00,,,0.07,VWS V12.07,2013-02-05 20:08:00,
2013-02-05 14:10:00,18.8,11.6,29.79,WSW,257,0.0,3.0,73,0.00,,,0.07,VWS V12.07,2013-02-05 20:10:00,
2013-02-05 14:11:00,18.9,12.0,29.79,East,95,0.0,3.0,74,0.00,,,0.07,VWS V12.07,2013-02-05 20:11:00,
2013-02-05 14:12:00,18.9,12.0,29.79,East,89,0.0,3.0,74,0.00,,,0.07,VWS V12.07,2013-02-05 20:12:00,
2013-02-05 14:13:00,18.9,12.0,29.79,East,89,0.0,3.0,74,0.00,,,0.07,VWS V12.07,2013-02-05 20:13:00,
2013-02-05 14:16:00,18.9,12.0,29.80,NNE,26,0.0,3.0,74,0.00,,,0.07,VWS V12.07,2013-02-05 20:16:00,
2013-02-05 14:17:00,18.9,12.0,29.80,NW,317,1.0,3.0,74,0.00,,,0.07,VWS V12.07,2013-02-05 20:17:00,
2013-02-05 14:18:00,18.9,12.0,29.80,North,350,0.0,3.0,74,0.00,,,0.07,VWS V12.07,2013-02-05 20:18:00,
2013-02-05 14:22:00,19.1,12.2,29.80,NE,34,0.0,3.0,74,0.00,,,0.07,VWS V12.07,2013-02-05 20:22:00,
2013-02-05 14:24:00,19.1,12.2,29.80,NNE,33,0.0,3.0,74,0.00,,,0.07,VWS V12.07,2013-02-05 20:24:00,
2013-02-05 14:27:00,19.2,12.3,29.80,West,266,2.0,3.0,74,0.00,,,0.07,VWS V12.07,2013-02-05 20:27:00,
2013-02-05 14:29:00,19.2,12.3,29.80,West,266,0.0,2.0,74,0.00,,,0.07,VWS V12.07,2013-02-05 20:29:00,
2013-02-05 14:32:00,19.2,12.3,29.81,WSW,237,0.0,2.0,74,0.00,,,0.07,VWS V12.07,2013-02-05 20:32:00,
2013-02-05 14:33:00,19.2,12.3,29.81,WSW,250,2.0,2.0,74,0.00,,,0.07,VWS V12.07,2013-02-05 20:33:00,
2013-02-05 14:34:00,19.2,12.3,29.81,West,260,1.0,2.0,74,0.00,,,0.07,VWS V12.07,2013-02-05 20:34:00,
2013-02-05 14:37:00,19.2,12.3,29.81,WNW,283,0.0,2.0,74,0.00,,,0.07,VWS V12.07,2013-02-05 20:37:00,
2013-02-05 14:38:00,19.2,12.3,29.81,WNW,283,0.0,2.0,74,0.00,,,0.07,VWS V12.07,2013-02-05 20:38:00,
2013-02-05 14:39:00,19.2,12.3,29.81,WNW,291,0.0,2.0,74,0.00,,,0.07,VWS V12.07,2013-02-05 20:39:00,
2013-02-05 14:43:00,19.2,12.3,29.81,West,262,0.0,3.0,74,0.00,,,0.07,VWS V12.07,2013-02-05 20:43:00,
2013-02-05 14:44:00,19.2,12.3,29.81,West,276,0.0,3.0,74,0.00,,,0.07,VWS V12.07,2013-02-05 20:44:00,
2013-02-05 14:48:00,19.2,12.3,29.82,West,276,0.0,3.0,74,0.00,,,0.07,VWS V12.07,2013-02-05 20:48:00,
2013-02-05 14:49:00,19.2,12.3,29.82,NE,39,2.0,3.0,74,0.00,,,0.07,VWS V12.07,2013-02-05 20:49:00,
2013-02-05 14:53:00,19.1,12.2,29.82,NW,315,2.0,5.0,74,0.00,,,0.07,VWS V12.07,2013-02-05 20:53:00,
2013-02-05 14:54:00,18.9,11.7,29.82,West,263,0.0,5.0,73,0.00,,,0.07,VWS V12.07,2013-02-05 20:54:00,
2013-02-05 14:58:00,18.8,11.9,29.82,NW,304,0.0,5.0,74,0.00,,,0.07,VWS V12.07,2013-02-05 20:58:00,
2013-02-05 14:59:00,18.8,11.9,29.82,WNW,302,0.0,2.0,74,0.00,,,0.07,VWS V12.07,2013-02-05 20:59:00,
2013-02-05 15:03:00,18.6,11.7,29.82,North,6,1.0,3.0,74,0.00,,,0.07,VWS V12.07,2013-02-05 21:03:00,
2013-02-05 15:04:00,18.6,11.7,29.82,NNW,330,1.0,3.0,74,0.00,,,0.07,VWS V12.07,2013-02-05 21:04:00,
2013-02-05 15:08:00,18.6,12.0,29.82,NNW,330,0.0,3.0,75,0.00,,,0.07,VWS V12.07,2013-02-05 21:08:00,
2013-02-05 15:09:00,18.6,12.0,29.82,NNW,330,0.0,2.0,75,0.00,,,0.07,VWS V12.07,2013-02-05 21:09:00,
2013-02-05 15:13:00,18.6,11.7,29.82,ENE,69,3.0,4.0,74,0.00,,,0.07,VWS V12.07,2013-02-05 21:13:00,
2013-02-05 15:14:00,18.4,11.5,29.82,WNW,283,0.0,0.0,74,0.00,,,0.07,VWS V12.07,2013-02-05 21:14:00,
2013-02-05 15:18:00,18.4,11.8,29.83,WNW,296,1.0,4.0,75,0.00,,,0.07,VWS V12.07,2013-02-05 21:18:00,
2013-02-05 15:19:00,18.4,11.2,29.83,WNW,296,1.0,4.0,73,0.00,,,0.07,VWS V12.07,2013-02-05 21:19:00,
2013-02-05 15:20:00,18.4,11.2,29.83,WNW,296,0.0,4.0,73,0.00,,,0.07,VWS V12.07,2013-02-05 21:20:00,
2013-02-05 15:23:00,18.4,11.2,29.83,NNW,343,2.0,4.0,73,0.00,,,0.07,VWS V12.07,2013-02-05 21:23:00,
2013-02-05 15:24:00,18.4,11.5,29.83,NW,308,2.0,4.0,74,0.00,,,0.07,VWS V12.07,2013-02-05 21:24:00,
2013-02-05 15:25:00,18.4,11.5,29.83,NW,308,0.0,4.0,74,0.00,,,0.07,VWS V12.07,2013-02-05 21:25:00,
2013-02-05 15:29:00,18.4,11.8,29.83,NE,49,0.0,2.0,75,0.00,,,0.07,VWS V12.07,2013-02-05 21:29:00,
2013-02-05 15:30:00,18.4,11.8,29.85,NE,48,1.0,2.0,75,0.00,,,0.07,VWS V12.07,2013-02-05 21:30:00,
2013-02-05 15:34:00,18.3,11.4,29.85,WNW,288,2.0,4.0,74,0.00,,,0.07,VWS V12.07,2013-02-05 21:34:00,
2013-02-05 15:35:00,18.3,11.4,29.85,WNW,288,1.0,4.0,74,0.00,,,0.07,VWS V12.07,2013-02-05 21:35:00,
2013-02-05 15:36:00,18.3,11.7,29.85,NNW,340,1.0,4.0,75,0.00,,,0.07,VWS V12.07,2013-02-05 21:36:00,
2013-02-05 15:39:00,18.1,11.8,29.85,NNW,333,0.0,3.0,76,0.00,,,0.07,VWS V12.07,2013-02-05 21:39:00,
2013-02-05 15:40:00,18.1,11.8,29.85,NNW,333,0.0,3.0,76,0.00,,,0.07,VWS V12.07,2013-02-05 21:40:00,
2013-02-05 15:41:00,18.1,11.8,29.85,WNW,296,1.0,3.0,76,0.00,,,0.07,VWS V12.07,2013-02-05 21:41:00,
2013-02-05 15:45:00,18.0,11.4,29.85,North,351,0.0,5.0,75,0.00,,,0.07,VWS V12.07,2013-02-05 21:45:00,
2013-02-05 15:46:00,17.8,11.2,29.85,NNW,330,0.0,5.0,75,0.00,,,0.07,VWS V12.07,2013-02-05 21:46:00,
2013-02-05 15:47:00,17.8,11.2,29.85,NW,307,1.0,5.0,75,0.00,,,0.07,VWS V12.07,2013-02-05 21:47:00,
2013-02-05 15:50:00,17.7,11.4,29.85,NNW,330,2.0,2.0,76,0.00,,,0.07,VWS V12.07,2013-02-05 21:50:00,
2013-02-05 15:51:00,17.7,11.4,29.85,WNW,300,1.0,3.0,76,0.00,,,0.07,VWS V12.07,2013-02-05 21:51:00,
2013-02-05 15:52:00,17.7,11.4,29.85,NNW,348,1.0,3.0,76,0.00,,,0.07,VWS V12.07,2013-02-05 21:52:00,
2013-02-05 15:55:00,17.5,11.2,29.85,NNW,342,0.0,3.0,76,0.00,,,0.07,VWS V12.07,2013-02-05 21:55:00,
2013-02-05 15:56:00,17.5,11.2,29.85,North,350,1.0,3.0,76,0.00,,,0.07,VWS V12.07,2013-02-05 21:56:00,
2013-02-05 15:57:00,17.5,11.2,29.85,NNW,348,1.0,3.0,76,0.00,,,0.07,VWS V12.07,2013-02-05 21:57:00,
2013-02-05 16:00:00,17.5,11.2,29.86,WNW,284,0.0,3.0,76,0.00,,,0.07,VWS V12.07,2013-02-05 22:00:00,
2013-02-05 16:01:00,17.3,11.1,29.86,NE,35,1.0,3.0,76,0.00,,,0.07,VWS V12.07,2013-02-05 22:01:00,
2013-02-05 16:02:00,17.3,11.1,29.86,NNE,13,0.0,3.0,76,0.00,,,0.07,VWS V12.07,2013-02-05 22:02:00,
2013-02-05 16:06:00,17.3,11.1,29.86,North,349,1.0,3.0,76,0.00,,,0.07,VWS V12.07,2013-02-05 22:06:00,
2013-02-05 16:07:00,17.2,10.9,29.86,NW,326,0.0,4.0,76,0.00,,,0.07,VWS V12.07,2013-02-05 22:07:00,
2013-02-05 16:11:00,17.2,10.9,29.86,WNW,301,4.0,4.0,76,0.00,,,0.07,VWS V12.07,2013-02-05 22:11:00,
2013-02-05 16:13:00,17.2,10.6,29.86,WNW,295,1.0,4.0,75,0.00,,,0.07,VWS V12.07,2013-02-05 22:13:00,
2013-02-05 16:16:00,17.0,10.8,29.87,WNW,295,0.0,4.0,76,0.00,,,0.07,VWS V12.07,2013-02-05 22:16:00,
2013-02-05 16:18:00,17.0,10.8,29.87,WNW,293,0.0,4.0,76,0.00,,,0.07,VWS V12.07,2013-02-05 22:18:00,
2013-02-05 16:21:00,17.0,11.1,29.87,WNW,293,0.0,2.0,77,0.00,,,0.07,VWS V12.07,2013-02-05 22:21:00,
2013-02-05 16:22:00,17.0,11.1,29.87,WNW,293,0.0,2.0,77,0.00,,,0.07,VWS V12.07,2013-02-05 22:22:00,
2013-02-05 16:23:00,17.0,11.1,29.87,WNW,297,0.0,2.0,77,0.00,,,0.07,VWS V12.07,2013-02-05 22:23:00,
2013-02-05 16:26:00,17.0,11.3,29.87,WNW,302,0.0,2.0,78,0.00,,,0.07,VWS V12.07,2013-02-05 22:26:00,
2013-02-05 16:27:00,17.0,11.3,29.87,WNW,302,0.0,2.0,78,0.00,,,0.07,VWS V12.07,2013-02-05 22:27:00,
2013-02-05 16:28:00,17.0,11.6,29.87,WNW,302,0.0,1.0,79,0.00,,,0.07,VWS V12.07,2013-02-05 22:28:00,
2013-02-05 16:31:00,16.9,11.8,29.88,NNW,343,2.0,5.0,80,0.00,,,0.07,VWS V12.07,2013-02-05 22:31:00,
2013-02-05 16:32:00,16.9,11.8,29.88,NNW,343,0.0,5.0,80,0.00,,,0.07,VWS V12.07,2013-02-05 22:32:00,
2013-02-05 16:33:00,16.9,11.8,29.88,NNW,343,1.0,5.0,80,0.00,,,0.07,VWS V12.07,2013-02-05 22:33:00,
2013-02-05 16:37:00,16.7,11.9,29.88,NNW,343,0.0,5.0,81,0.00,,,0.07,VWS V12.07,2013-02-05 22:37:00,
2013-02-05 16:38:00,16.5,11.7,29.88,NNW,343,0.0,5.0,81,0.00,,,0.07,VWS V12.07,2013-02-05 22:38:00,
2013-02-05 16:39:00,16.5,11.7,29.88,NNW,343,0.0,2.0,81,0.00,,,0.07,VWS V12.07,2013-02-05 22:39:00,
2013-02-05 16:42:00,16.4,11.6,29.88,ENE,57,0.0,2.0,81,0.00,,,0.07,VWS V12.07,2013-02-05 22:42:00,
2013-02-05 16:43:00,16.4,11.6,29.88,ENE,57,0.0,2.0,81,0.00,,,0.07,VWS V12.07,2013-02-05 22:43:00,
2013-02-05 16:44:00,16.2,11.4,29.88,ENE,57,0.0,2.0,81,0.00,,,0.07,VWS V12.07,2013-02-05 22:44:00,
2013-02-05 16:47:00,16.1,11.0,29.89,ENE,57,0.0,2.0,80,0.00,,,0.07,VWS V12.07,2013-02-05 22:47:00,
2013-02-05 16:48:00,16.1,11.0,29.89,ENE,57,0.0,1.0,80,0.00,,,0.07,VWS V12.07,2013-02-05 22:48:00,
2013-02-05 16:49:00,16.1,11.0,29.89,ENE,57,0.0,1.0,80,0.00,,,0.07,VWS V12.07,2013-02-05 22:49:00,
2013-02-05 16:52:00,15.9,10.8,29.89,ENE,57,0.0,1.0,80,0.00,,,0.07,VWS V12.07,2013-02-05 22:52:00,
2013-02-05 16:53:00,15.9,10.8,29.89,ENE,57,0.0,1.0,80,0.00,,,0.07,VWS V12.07,2013-02-05 22:53:00,
2013-02-05 16:54:00,15.9,10.8,29.89,ENE,57,0.0,1.0,80,0.00,,,0.07,VWS V12.07,2013-02-05 22:54:00,
2013-02-05 16:57:00,15.7,10.6,29.89,NNW,338,1.0,1.0,80,0.00,,,0.07,VWS V12.07,2013-02-05 22:57:00,
2013-02-05 16:58:00,15.7,10.6,29.89,NNW,338,0.0,1.0,80,0.00,,,0.07,VWS V12.07,2013-02-05 22:58:00,
2013-02-05 16:59:00,15.7,10.6,29.89,NNW,338,0.0,1.0,80,0.00,,,0.07,VWS V12.07,2013-02-05 22:59:00,
2013-02-05 17:02:00,15.7,10.6,29.90,NNW,338,0.0,1.0,80,0.00,,,0.07,VWS V12.07,2013-02-05 23:02:00,
2013-02-05 17:03:00,15.7,10.6,29.90,NNW,338,0.0,1.0,80,0.00,,,0.07,VWS V12.07,2013-02-05 23:03:00,
2013-02-05 17:04:00,15.7,10.6,29.90,NNW,338,0.0,1.0,80,0.00,,,0.07,VWS V12.07,2013-02-05 23:04:00,
2013-02-05 17:07:00,15.7,10.6,29.90,NNW,338,0.0,1.0,80,0.00,,,0.07,VWS V12.07,2013-02-05 23:07:00,
2013-02-05 17:09:00,15.7,10.6,29.90,NNW,338,0.0,0.0,80,0.00,,,0.07,VWS V12.07,2013-02-05 23:09:00,
2013-02-05 17:10:00,15.7,10.6,29.90,NNW,338,1.0,1.0,80,0.00,,,0.07,VWS V12.07,2013-02-05 23:10:00,
2013-02-05 17:13:00,15.6,10.5,29.90,NE,53,1.0,1.0,80,0.00,,,0.07,VWS V12.07,2013-02-05 23:13:00,
2013-02-05 17:14:00,15.6,10.5,29.90,NNW,341,0.0,1.0,80,0.00,,,0.07,VWS V12.07,2013-02-05 23:14:00,
2013-02-05 17:15:00,15.4,10.4,29.91,NNW,341,0.0,1.0,80,0.00,,,0.07,VWS V12.07,2013-02-05 23:15:00,
2013-02-05 17:18:00,15.4,10.4,29.91,WNW,285,0.0,1.0,80,0.00,,,0.07,VWS V12.07,2013-02-05 23:18:00,
2013-02-05 17:19:00,15.4,10.4,29.91,WNW,285,0.0,1.0,80,0.00,,,0.07,VWS V12.07,2013-02-05 23:19:00,
2013-02-05 17:20:00,15.2,10.1,29.91,WNW,285,0.0,1.0,80,0.00,,,0.07,VWS V12.07,2013-02-05 23:20:00,
2013-02-05 17:23:00,15.2,10.1,29.91,WNW,288,0.0,1.0,80,0.00,,,0.07,VWS V12.07,2013-02-05 23:23:00,
2013-02-05 17:24:00,15.2,10.1,29.91,WNW,287,0.0,1.0,80,0.00,,,0.07,VWS V12.07,2013-02-05 23:24:00,
2013-02-05 17:25:00,15.1,10.1,29.91,WNW,288,0.0,1.0,80,0.00,,,0.07,VWS V12.07,2013-02-05 23:25:00,
2013-02-05 17:28:00,15.1,10.1,29.91,WNW,288,0.0,1.0,80,0.00,,,0.07,VWS V12.07,2013-02-05 23:28:00,
2013-02-05 17:29:00,14.9,9.6,29.91,NW,311,0.0,3.0,79,0.00,,,0.07,VWS V12.07,2013-02-05 23:29:00,
2013-02-05 17:31:00,14.9,9.6,29.92,NW,311,0.0,3.0,79,0.00,,,0.07,VWS V12.07,2013-02-05 23:31:00,
2013-02-05 17:33:00,14.8,9.5,29.92,NW,311,0.0,3.0,79,0.00,,,0.07,VWS V12.07,2013-02-05 23:33:00,
2013-02-05 17:34:00,14.8,9.5,29.92,NW,311,0.0,3.0,79,0.00,,,0.07,VWS V12.07,2013-02-05 23:34:00,
2013-02-05 17:36:00,14.6,9.3,29.92,NW,311,0.0,3.0,79,0.00,,,0.07,VWS V12.07,2013-02-05 23:36:00,
2013-02-05 17:38:00,14.6,9.3,29.92,NW,311,0.0,1.0,79,0.00,,,0.07,VWS V12.07,2013-02-05 23:38:00,
2013-02-05 17:39:00,14.6,9.3,29.92,NW,311,0.0,1.0,79,0.00,,,0.07,VWS V12.07,2013-02-05 23:39:00,
2013-02-05 17:40:00,14.6,9.3,29.92,NW,311,0.0,1.0,79,0.00,,,0.07,VWS V12.07,2013-02-05 23:40:00,
2013-02-05 17:41:00,14.6,9.3,29.92,NW,311,0.0,1.0,79,0.00,,,0.07,VWS V12.07,2013-02-05 23:41:00,
2013-02-05 17:43:00,14.4,9.1,29.92,NW,311,0.0,1.0,79,0.00,,,0.07,VWS V12.07,2013-02-05 23:43:00,
2013-02-05 17:44:00,14.4,9.1,29.92,NW,311,0.0,1.0,79,0.00,,,0.07,VWS V12.07,2013-02-05 23:44:00,
2013-02-05 17:45:00,14.4,9.1,29.94,NW,311,0.0,1.0,79,0.00,,,0.07,VWS V12.07,2013-02-05 23:45:00,
2013-02-05 17:46:00,14.4,9.1,29.94,NW,311,0.0,1.0,79,0.00,,,0.07,VWS V12.07,2013-02-05 23:46:00,
2013-02-05 17:48:00,14.3,8.7,29.94,WSW,240,1.0,3.0,78,0.00,,OVC027,0.07,VWS V12.07,2013-02-05 23:48:00,
2013-02-05 17:49:00,14.3,8.7,29.94,North,5,0.0,3.0,78,0.00,,OVC027,0.07,VWS V12.07,2013-02-05 23:49:00,
2013-02-05 17:50:00,14.3,8.7,29.94,North,5,0.0,3.0,78,0.00,,OVC027,0.07,VWS V12.07,2013-02-05 23:50:00,
2013-02-05 17:51:00,14.3,8.7,29.94,North,5,0.0,3.0,78,0.00,,OVC027,0.07,VWS V12.07,2013-02-05 23:51:00,
2013-02-05 17:53:00,14.1,8.8,29.94,North,5,0.0,3.0,79,0.00,,OVC027,0.07,VWS V12.07,2013-02-05 23:53:00,
2013-02-05 17:54:00,14.1,8.8,29.94,NW,305,1.0,3.0,79,0.00,,OVC027,0.07,VWS V12.07,2013-02-05 23:54:00,
2013-02-05 17:55:00,14.1,8.8,29.94,NW,305,0.0,3.0,79,0.00,,OVC027,0.07,VWS V12.07,2013-02-05 23:55:00,
2013-02-05 17:57:00,14.1,8.8,29.94,NW,318,0.0,3.0,79,0.00,,OVC027,0.07,VWS V12.07,2013-02-05 23:57:00,
2013-02-05 17:58:00,14.1,8.8,29.94,NNE,26,1.0,4.0,79,0.00,,OVC027,0.07,VWS V12.07,2013-02-05 23:58:00,
2013-02-05 18:00:00,14.0,8.7,29.94,WNW,283,1.0,4.0,79,0.00,,OVC027,0.07,VWS V12.07,2013-02-06 00:00:00,
2013-02-05 18:02:00,14.0,8.7,29.94,NNW,328,0.0,4.0,79,0.00,,OVC027,0.07,VWS V12.07,2013-02-06 00:02:00,
2013-02-05 18:03:00,14.0,8.7,29.94,NNW,330,0.0,4.0,79,0.00,,OVC027,0.07,VWS V12.07,2013-02-06 00:03:00,
2013-02-05 18:05:00,14.0,8.7,29.94,NNW,330,1.0,4.0,79,0.00,,,0.07,VWS V12.07,2013-02-06 00:05:00,
2013-02-05 18:07:00,14.0,8.7,29.94,NNW,330,0.0,4.0,79,0.00,,,0.07,VWS V12.07,2013-02-06 00:07:00,
2013-02-05 18:09:00,13.8,8.5,29.94,NNW,330,0.0,1.0,79,0.00,,,0.07,VWS V12.07,2013-02-06 00:09:00,
2013-02-05 18:10:00,13.8,8.2,29.94,NNW,330,0.0,1.0,78,0.00,,,0.07,VWS V12.07,2013-02-06 00:10:00,
2013-02-05 18:11:00,13.8,8.5,29.94,NNW,330,0.0,1.0,79,0.00,,,0.07,VWS V12.07,2013-02-06 00:11:00,
2013-02-05 18:12:00,13.6,8.0,29.94,NNW,330,0.0,1.0,78,0.00,,,0.07,VWS V12.07,2013-02-06 00:12:00,
2013-02-05 18:14:00,13.6,8.3,29.94,NNW,330,1.0,2.0,79,0.00,,,0.07,VWS V12.07,2013-02-06 00:14:00,
2013-02-05 18:15:00,13.5,7.9,29.95,West,262,1.0,2.0,78,0.00,,,0.07,VWS V12.07,2013-02-06 00:15:00,
2013-02-05 18:16:00,13.5,7.9,29.95,NW,305,0.0,2.0,78,0.00,,,0.07,VWS V12.07,2013-02-06 00:16:00,
2013-02-05 18:17:00,13.5,7.9,29.95,NE,39,0.0,3.0,78,0.00,,,0.07,VWS V12.07,2013-02-06 00:17:00,
2013-02-05 18:19:00,13.3,7.4,29.95,NE,39,0.0,3.0,77,0.00,,,0.07,VWS V12.07,2013-02-06 00:19:00,
2013-02-05 18:21:00,13.3,7.7,29.95,NE,39,0.0,3.0,78,0.00,,,0.07,VWS V12.07,2013-02-06 00:21:00,
2013-02-05 18:23:00,13.1,7.5,29.95,NE,39,0.0,3.0,78,0.00,,,0.07,VWS V12.07,2013-02-06 00:23:00,
2013-02-05 18:24:00,12.9,7.1,29.95,NE,39,0.0,3.0,77,0.00,,,0.07,VWS V12.07,2013-02-06 00:24:00,
2013-02-05 18:26:00,12.8,7.0,29.95,NE,39,0.0,3.0,77,0.00,,,0.07,VWS V12.07,2013-02-06 00:26:00,
2013-02-05 18:28:00,12.6,6.8,29.95,NNE,14,0.0,3.0,77,0.00,,,0.07,VWS V12.07,2013-02-06 00:28:00,
2013-02-05 18:29:00,12.6,6.8,29.95,NNE,14,0.0,3.0,77,0.00,,,0.07,VWS V12.07,2013-02-06 00:29:00,
2013-02-05 18:31:00,12.4,6.3,29.95,North,3,0.0,3.0,76,0.00,,,0.07,VWS V12.07,2013-02-06 00:31:00,
2013-02-05 18:33:00,12.3,6.2,29.95,North,3,0.0,3.0,76,0.00,,,0.07,VWS V12.07,2013-02-06 00:33:00,
2013-02-05 18:34:00,12.3,6.2,29.95,North,3,0.0,3.0,76,0.00,,,0.07,VWS V12.07,2013-02-06 00:34:00,
2013-02-05 18:36:00,12.1,6.0,29.95,North,3,0.0,3.0,76,0.00,,,0.07,VWS V12.07,2013-02-06 00:36:00,
2013-02-05 18:38:00,11.9,5.8,29.95,North,3,0.0,0.0,76,0.00,,,0.07,VWS V12.07,2013-02-06 00:38:00,
2013-02-05 18:40:00,11.9,5.8,29.95,North,3,0.0,0.0,76,0.00,,,0.07,VWS V12.07,2013-02-06 00:40:00,
2013-02-05 18:41:00,11.9,6.1,29.95,North,3,0.0,0.0,77,0.00,,,0.07,VWS V12.07,2013-02-06 00:41:00,
2013-02-05 18:44:00,11.7,5.9,29.95,North,3,0.0,0.0,77,0.00,,,0.07,VWS V12.07,2013-02-06 00:44:00,
2013-02-05 18:45:00,11.6,5.8,29.96,North,3,0.0,0.0,77,0.00,,,0.07,VWS V12.07,2013-02-06 00:45:00,
2013-02-05 18:46:00,11.6,5.8,29.96,North,3,0.0,0.0,77,0.00,,,0.07,VWS V12.07,2013-02-06 00:46:00,
2013-02-05 18:49:00,11.2,5.4,29.96,North,3,0.0,0.0,77,0.00,,,0.07,VWS V12.07,2013-02-06 00:49:00,
2013-02-05 18:50:00,11.2,5.4,29.96,North,3,0.0,0.0,77,0.00,,,0.07,VWS V12.07,2013-02-06 00:50:00,
2013-02-05 18:51:00,11.1,5.3,29.96,North,3,0.0,0.0,77,0.00,,,0.07,VWS V12.07,2013-02-06 00:51:00,
2013-02-05 18:54:00,10.9,5.1,29.96,North,3,0.0,0.0,77,0.00,,,0.07,VWS V12.07,2013-02-06 00:54:00,
2013-02-05 18:55:00,10.9,5.1,29.96,North,3,0.0,0.0,77,0.00,,,0.07,VWS V12.07,2013-02-06 00:55:00,
2013-02-05 18:56:00,10.7,4.9,29.96,North,3,0.0,0.0,77,0.00,,,0.07,VWS V12.07,2013-02-06 00:56:00,
2013-02-05 18:57:00,10.7,4.9,29.96,North,3,0.0,0.0,77,0.00,,,0.07,VWS V12.07,2013-02-06 00:57:00,
2013-02-05 18:59:00,10.5,4.7,29.96,North,3,0.0,0.0,77,0.00,,,0.07,VWS V12.07,2013-02-06 00:59:00,
2013-02-05 19:01:00,10.4,4.9,29.98,North,3,0.0,0.0,78,0.00,,,0.07,VWS V12.07,2013-02-06 01:01:00,
2013-02-05 19:02:00,10.4,4.9,29.98,North,3,0.0,0.0,78,0.00,,,0.07,VWS V12.07,2013-02-06 01:02:00,
2013-02-05 19:04:00,10.2,4.7,29.98,North,3,0.0,0.0,78,0.00,,,0.07,VWS V12.07,2013-02-06 01:04:00,
2013-02-05 19:06:00,10.0,4.5,29.98,North,3,0.0,0.0,78,0.00,,,0.07,VWS V12.07,2013-02-06 01:06:00,
2013-02-05 19:07:00,10.0,4.5,29.98,North,3,0.0,0.0,78,0.00,,,0.07,VWS V12.07,2013-02-06 01:07:00,
2013-02-05 19:09:00,10.0,4.5,29.98,North,3,0.0,0.0,78,0.00,,,0.07,VWS V12.07,2013-02-06 01:09:00,
2013-02-05 19:12:00,9.9,4.4,29.98,North,3,0.0,0.0,78,0.00,,,0.07,VWS V12.07,2013-02-06 01:12:00,
2013-02-05 19:13:00,9.7,4.2,29.98,North,3,0.0,0.0,78,0.00,,,0.07,VWS V12.07,2013-02-06 01:13:00,
2013-02-05 19:14:00,9.7,4.2,29.98,North,3,0.0,0.0,78,0.00,,,0.07,VWS V12.07,2013-02-06 01:14:00,
2013-02-05 19:17:00,9.5,4.3,29.98,North,3,0.0,0.0,79,0.00,,,0.07,VWS V12.07,2013-02-06 01:17:00,
2013-02-05 19:18:00,9.5,4.3,29.98,North,3,0.0,0.0,79,0.00,,,0.07,VWS V12.07,2013-02-06 01:18:00,
2013-02-05 19:19:00,9.3,4.1,29.98,North,3,0.0,0.0,79,0.00,,,0.07,VWS V12.07,2013-02-06 01:19:00,
2013-02-05 19:22:00,9.3,4.1,29.98,North,3,0.0,0.0,79,0.00,,,0.07,VWS V12.07,2013-02-06 01:22:00,
2013-02-05 19:23:00,9.2,4.0,29.98,North,3,0.0,0.0,79,0.00,,,0.07,VWS V12.07,2013-02-06 01:23:00,
2013-02-05 19:24:00,9.2,4.0,29.98,North,3,0.0,0.0,79,0.00,,,0.07,VWS V12.07,2013-02-06 01:24:00,
2013-02-05 19:27:00,9.0,3.8,29.98,North,3,0.0,0.0,79,0.00,,,0.07,VWS V12.07,2013-02-06 01:27:00,
2013-02-05 19:28:00,9.0,3.8,29.98,North,3,0.0,0.0,79,0.00,,,0.07,VWS V12.07,2013-02-06 01:28:00,
2013-02-05 19:30:00,9.0,3.8,29.99,North,3,0.0,0.0,79,0.00,,,0.07,VWS V12.07,2013-02-06 01:30:00,
2013-02-05 19:32:00,8.8,3.6,29.99,North,3,0.0,0.0,79,0.00,,,0.07,VWS V12.07,2013-02-06 01:32:00,
2013-02-05 19:33:00,8.6,3.4,29.99,North,3,0.0,0.0,79,0.00,,,0.07,VWS V12.07,2013-02-06 01:33:00,
2013-02-05 19:35:00,8.4,3.2,29.99,North,3,0.0,0.0,79,0.00,,CLR,0.07,VWS V12.07,2013-02-06 01:35:00,
2013-02-05 19:37:00,8.3,3.1,29.99,North,3,0.0,0.0,79,0.00,,CLR,0.07,VWS V12.07,2013-02-06 01:37:00,
2013-02-05 19:38:00,8.3,3.1,29.99,North,3,0.0,0.0,79,0.00,,CLR,0.07,VWS V12.07,2013-02-06 01:38:00,
2013-02-05 19:40:00,8.1,3.0,29.99,North,3,0.0,0.0,79,0.00,,CLR,0.07,VWS V12.07,2013-02-06 01:40:00,
2013-02-05 19:42:00,7.9,2.8,29.99,North,3,0.0,0.0,79,0.00,,CLR,0.07,VWS V12.07,2013-02-06 01:42:00,
2013-02-05 19:43:00,7.7,2.6,29.99,North,3,0.0,0.0,79,0.00,,CLR,0.07,VWS V12.07,2013-02-06 01:43:00,
2013-02-05 19:45:00,7.7,2.6,29.99,North,3,0.0,0.0,79,0.00,,CLR,0.07,VWS V12.07,2013-02-06 01:45:00,
2013-02-05 19:47:00,7.6,2.7,29.99,North,3,0.0,0.0,80,0.00,,CLR,0.07,VWS V12.07,2013-02-06 01:47:00,
2013-02-05 19:48:00,7.6,2.5,29.99,North,3,0.0,0.0,79,0.00,,CLR,0.07,VWS V12.07,2013-02-06 01:48:00,
2013-02-05 19:49:00,7.4,2.5,29.99,North,3,0.0,0.0,80,0.00,,CLR,0.07,VWS V12.07,2013-02-06 01:49:00,
2013-02-05 19:51:00,7.4,2.5,29.99,North,3,0.0,0.0,80,0.00,,CLR,0.07,VWS V12.07,2013-02-06 01:51:00,
2013-02-05 19:53:00,7.2,2.3,29.99,North,3,0.0,0.0,80,0.00,,CLR,0.07,VWS V12.07,2013-02-06 01:53:00,
2013-02-05 19:54:00,7.2,2.3,29.99,North,3,0.0,0.0,80,0.00,,CLR,0.07,VWS V12.07,2013-02-06 01:54:00,
2013-02-05 19:56:00,7.2,2.3,29.99,North,3,0.0,0.0,80,0.00,,CLR,0.07,VWS V12.07,2013-02-06 01:56:00,
2013-02-05 19:58:00,7.0,2.2,29.99,North,3,0.0,0.0,80,0.00,,CLR,0.07,VWS V12.07,2013-02-06 01:58:00,
2013-02-05 19:59:00,7.0,2.4,29.99,North,3,0.0,0.0,81,0.00,,CLR,0.07,VWS V12.07,2013-02-06 01:59:00,
2013-02-05 20:01:00,7.0,2.4,30.00,North,3,0.0,0.0,81,0.00,,CLR,0.07,VWS V12.07,2013-02-06 02:01:00,
2013-02-05 20:03:00,6.9,2.3,30.00,North,3,0.0,0.0,81,0.00,,CLR,0.07,VWS V12.07,2013-02-06 02:03:00,
2013-02-05 20:04:00,6.9,2.3,30.00,North,3,0.0,0.0,81,0.00,,CLR,0.07,VWS V12.07,2013-02-06 02:04:00,
2013-02-05 20:06:00,6.7,2.1,30.00,North,3,0.0,0.0,81,0.00,,CLR,0.07,VWS V12.07,2013-02-06 02:06:00,
2013-02-05 20:08:00,6.5,1.9,30.00,North,3,0.0,0.0,81,0.00,,CLR,0.07,VWS V12.07,2013-02-06 02:08:00,
2013-02-05 20:09:00,6.5,1.9,30.00,North,3,0.0,0.0,81,0.00,,CLR,0.07,VWS V12.07,2013-02-06 02:09:00,
2013-02-05 20:11:00,6.3,1.7,30.00,North,3,0.0,0.0,81,0.00,,CLR,0.07,VWS V12.07,2013-02-06 02:11:00,
2013-02-05 20:13:00,6.1,1.5,30.00,North,3,0.0,0.0,81,0.00,,CLR,0.07,VWS V12.07,2013-02-06 02:13:00,
2013-02-05 20:14:00,6.1,1.5,30.00,North,3,0.0,0.0,81,0.00,,CLR,0.07,VWS V12.07,2013-02-06 02:14:00,
2013-02-05 20:16:00,6.0,1.4,30.01,North,3,0.0,0.0,81,0.00,,CLR,0.07,VWS V12.07,2013-02-06 02:16:00,
2013-02-05 20:18:00,6.0,1.4,30.01,North,3,0.0,0.0,81,0.00,,CLR,0.07,VWS V12.07,2013-02-06 02:18:00,
2013-02-05 20:19:00,6.0,1.4,30.01,North,3,0.0,0.0,81,0.00,,CLR,0.07,VWS V12.07,2013-02-06 02:19:00,
2013-02-05 20:21:00,5.8,1.5,30.01,North,3,0.0,0.0,82,0.00,,CLR,0.07,VWS V12.07,2013-02-06 02:21:00,
2013-02-05 20:23:00,5.8,1.5,30.01,North,3,0.0,0.0,82,0.00,,CLR,0.07,VWS V12.07,2013-02-06 02:23:00,
2013-02-05 20:24:00,5.8,1.5,30.01,North,3,0.0,0.0,82,0.00,,CLR,0.07,VWS V12.07,2013-02-06 02:24:00,
2013-02-05 20:26:00,5.8,1.5,30.01,North,3,0.0,0.0,82,0.00,,CLR,0.07,VWS V12.07,2013-02-06 02:26:00,
2013-02-05 20:28:00,5.8,1.5,30.01,North,3,0.0,0.0,82,0.00,,CLR,0.07,VWS V12.07,2013-02-06 02:28:00,
2013-02-05 20:29:00,5.8,1.5,30.01,North,3,0.0,0.0,82,0.00,,CLR,0.07,VWS V12.07,2013-02-06 02:29:00,
2013-02-05 20:31:00,5.6,1.3,30.01,North,3,0.0,0.0,82,0.00,,CLR,0.07,VWS V12.07,2013-02-06 02:31:00,
2013-02-05 20:33:00,5.6,1.3,30.01,North,3,0.0,0.0,82,0.00,,CLR,0.07,VWS V12.07,2013-02-06 02:33:00,
2013-02-05 20:34:00,5.6,1.3,30.01,North,3,0.0,0.0,82,0.00,,CLR,0.07,VWS V12.07,2013-02-06 02:34:00,
2013-02-05 20:36:00,5.6,1.3,30.01,North,3,0.0,0.0,82,0.00,,CLR,0.07,VWS V12.07,2013-02-06 02:36:00,
2013-02-05 20:38:00,5.6,1.3,30.01,North,3,0.0,0.0,82,0.00,,CLR,0.07,VWS V12.07,2013-02-06 02:38:00,
2013-02-05 20:39:00,5.6,1.3,30.01,North,3,0.0,0.0,82,0.00,,CLR,0.07,VWS V12.07,2013-02-06 02:39:00,
2013-02-05 20:42:00,5.4,1.1,30.01,North,3,0.0,0.0,82,0.00,,CLR,0.07,VWS V12.07,2013-02-06 02:42:00,
2013-02-05 20:43:00,5.4,1.1,30.01,North,3,0.0,0.0,82,0.00,,CLR,0.07,VWS V12.07,2013-02-06 02:43:00,
2013-02-05 20:45:00,5.4,1.1,30.01,North,3,0.0,0.0,82,0.00,,CLR,0.07,VWS V12.07,2013-02-06 02:45:00,
2013-02-05 20:47:00,5.4,1.1,30.01,North,3,0.0,0.0,82,0.00,,CLR,0.07,VWS V12.07,2013-02-06 02:47:00,
2013-02-05 20:48:00,5.2,1.2,30.01,North,3,0.0,0.0,83,0.00,,CLR,0.07,VWS V12.07,2013-02-06 02:48:00,
2013-02-05 20:50:00,5.2,1.2,30.01,North,3,0.0,0.0,83,0.00,,CLR,0.07,VWS V12.07,2013-02-06 02:50:00,
2013-02-05 20:52:00,5.0,0.7,30.01,North,3,0.0,0.0,82,0.00,,CLR,0.07,VWS V12.07,2013-02-06 02:52:00,
2013-02-05 20:53:00,5.0,0.7,30.01,North,3,0.0,0.0,82,0.00,,CLR,0.07,VWS V12.07,2013-02-06 02:53:00,
2013-02-05 20:55:00,5.0,0.7,30.01,North,3,0.0,0.0,82,0.00,,CLR,0.07,VWS V12.07,2013-02-06 02:55:00,
2013-02-05 20:57:00,4.8,0.5,30.01,North,3,0.0,0.0,82,0.00,,CLR,0.07,VWS V12.07,2013-02-06 02:57:00,
2013-02-05 20:59:00,4.8,0.5,30.01,North,3,0.0,0.0,82,0.00,,CLR,0.07,VWS V12.07,2013-02-06 02:59:00,
2013-02-05 21:00:00,4.8,0.5,30.02,North,3,0.0,0.0,82,0.00,,CLR,0.07,VWS V12.07,2013-02-06 03:00:00,
2013-02-05 21:02:00,4.7,0.4,30.02,North,3,0.0,0.0,82,0.00,,CLR,0.07,VWS V12.07,2013-02-06 03:02:00,
2013-02-05 21:04:00,4.7,0.4,30.02,North,3,0.0,0.0,82,0.00,,CLR,0.07,VWS V12.07,2013-02-06 03:04:00,
2013-02-05 21:05:00,4.7,0.4,30.02,North,3,0.0,0.0,82,0.00,,CLR,0.07,VWS V12.07,2013-02-06 03:05:00,
2013-02-05 21:07:00,4.5,0.2,30.02,North,3,0.0,0.0,82,0.00,,CLR,0.07,VWS V12.07,2013-02-06 03:07:00,
2013-02-05 21:09:00,4.5,0.2,30.02,North,3,0.0,0.0,82,0.00,,CLR,0.07,VWS V12.07,2013-02-06 03:09:00,
2013-02-05 21:10:00,4.5,0.2,30.02,North,3,0.0,0.0,82,0.00,,CLR,0.07,VWS V12.07,2013-02-06 03:10:00,
2013-02-05 21:13:00,4.5,0.5,30.02,North,3,0.0,0.0,83,0.00,,CLR,0.07,VWS V12.07,2013-02-06 03:13:00,
2013-02-05 21:14:00,4.3,0.0,30.02,North,3,0.0,0.0,82,0.00,,CLR,0.07,VWS V12.07,2013-02-06 03:14:00,
2013-02-05 21:15:00,4.3,0.0,30.02,North,3,0.0,0.0,82,0.00,,CLR,0.07,VWS V12.07,2013-02-06 03:15:00,
2013-02-05 21:16:00,4.3,0.0,30.02,North,3,0.0,0.0,82,0.00,,CLR,0.07,VWS V12.07,2013-02-06 03:16:00,
2013-02-05 21:18:00,4.3,0.0,30.02,North,3,0.0,0.0,82,0.00,,CLR,0.07,VWS V12.07,2013-02-06 03:18:00,
2013-02-05 21:19:00,4.1,-0.2,30.02,North,3,0.0,0.0,82,0.00,,CLR,0.07,VWS V12.07,2013-02-06 03:19:00,
2013-02-05 21:20:00,4.1,-0.2,30.02,North,3,0.0,0.0,82,0.00,,CLR,0.07,VWS V12.07,2013-02-06 03:20:00,
2013-02-05 21:21:00,4.1,-0.2,30.02,North,3,0.0,0.0,82,0.00,,CLR,0.07,VWS V12.07,2013-02-06 03:21:00,
2013-02-05 21:23:00,4.1,-0.2,30.02,North,3,0.0,0.0,82,0.00,,CLR,0.07,VWS V12.07,2013-02-06 03:23:00,
2013-02-05 21:24:00,3.9,-0.4,30.02,North,3,0.0,0.0,82,0.00,,CLR,0.07,VWS V12.07,2013-02-06 03:24:00,
2013-02-05 21:25:00,3.9,-0.4,30.02,North,3,0.0,0.0,82,0.00,,CLR,0.07,VWS V12.07,2013-02-06 03:25:00,
2013-02-05 21:26:00,3.9,-0.4,30.02,North,3,0.0,0.0,82,0.00,,CLR,0.07,VWS V12.07,2013-02-06 03:26:00,
2013-02-05 21:28:00,3.7,-0.6,30.02,North,3,0.0,0.0,82,0.00,,CLR,0.07,VWS V12.07,2013-02-06 03:28:00,
2013-02-05 21:30:00,3.5,-0.8,30.02,North,3,0.0,0.0,82,0.00,,CLR,0.07,VWS V12.07,2013-02-06 03:30:00,
2013-02-05 21:31:00,3.5,-1.0,30.02,North,3,0.0,0.0,81,0.00,,CLR,0.07,VWS V12.07,2013-02-06 03:31:00,
2013-02-05 21:33:00,3.4,-1.1,30.02,North,3,0.0,0.0,81,0.00,,CLR,0.07,VWS V12.07,2013-02-06 03:33:00,
2013-02-05 21:35:00,3.4,-0.9,30.02,North,3,0.0,0.0,82,0.00,,CLR,0.07,VWS V12.07,2013-02-06 03:35:00,
2013-02-05 21:36:00,3.2,-1.3,30.02,North,3,0.0,0.0,81,0.00,,CLR,0.07,VWS V12.07,2013-02-06 03:36:00,
2013-02-05 21:38:00,3.0,-1.5,30.02,North,3,0.0,0.0,81,0.00,,CLR,0.07,VWS V12.07,2013-02-06 03:38:00,
2013-02-05 21:40:00,3.0,-1.5,30.02,North,3,0.0,0.0,81,0.00,,CLR,0.07,VWS V12.07,2013-02-06 03:40:00,
2013-02-05 21:41:00,2.8,-1.7,30.02,North,3,0.0,0.0,81,0.00,,CLR,0.07,VWS V12.07,2013-02-06 03:41:00,
2013-02-05 21:43:00,2.8,-1.7,30.02,North,3,0.0,0.0,81,0.00,,CLR,0.07,VWS V12.07,2013-02-06 03:43:00,
2013-02-05 21:45:00,2.8,-1.7,30.04,North,3,0.0,0.0,81,0.00,,CLR,0.07,VWS V12.07,2013-02-06 03:45:00,
2013-02-05 21:46:00,2.6,-1.9,30.04,North,3,0.0,0.0,81,0.00,,CLR,0.07,VWS V12.07,2013-02-06 03:46:00,
2013-02-05 21:47:00,2.6,-1.9,30.04,North,3,0.0,0.0,81,0.00,,CLR,0.07,VWS V12.07,2013-02-06 03:47:00,
2013-02-05 21:48:00,2.6,-1.9,30.04,North,3,0.0,0.0,81,0.00,,CLR,0.07,VWS V12.07,2013-02-06 03:48:00,
2013-02-05 21:50:00,2.6,-1.9,30.04,North,3,0.0,0.0,81,0.00,,CLR,0.07,VWS V12.07,2013-02-06 03:50:00,
2013-02-05 21:51:00,2.6,-1.9,30.04,North,3,0.0,0.0,81,0.00,,CLR,0.07,VWS V12.07,2013-02-06 03:51:00,
2013-02-05 21:52:00,2.6,-1.9,30.04,North,3,0.0,0.0,81,0.00,,CLR,0.07,VWS V12.07,2013-02-06 03:52:00,
2013-02-05 21:54:00,2.4,-2.1,30.04,North,3,0.0,0.0,81,0.00,,CLR,0.07,VWS V12.07,2013-02-06 03:54:00,
2013-02-05 21:55:00,2.4,-2.1,30.04,North,3,0.0,0.0,81,0.00,,CLR,0.07,VWS V12.07,2013-02-06 03:55:00,
2013-02-05 21:56:00,2.4,-2.1,30.04,North,3,0.0,0.0,81,0.00,,CLR,0.07,VWS V12.07,2013-02-06 03:56:00,
2013-02-05 21:57:00,2.4,-2.1,30.04,North,3,0.0,0.0,81,0.00,,CLR,0.07,VWS V12.07,2013-02-06 03:57:00,
2013-02-05 21:59:00,2.4,-1.8,30.04,North,3,0.0,0.0,82,0.00,,CLR,0.07,VWS V12.07,2013-02-06 03:59:00,
2013-02-05 22:00:00,2.4,-1.8,30.04,North,3,0.0,0.0,82,0.00,,CLR,0.07,VWS V12.07,2013-02-06 04:00:00,
2013-02-05 22:02:00,2.2,-2.0,30.04,North,3,0.0,0.0,82,0.00,,CLR,0.07,VWS V12.07,2013-02-06 04:02:00,
2013-02-05 22:03:00,2.2,-2.0,30.04,North,3,0.0,0.0,82,0.00,,CLR,0.07,VWS V12.07,2013-02-06 04:03:00,
2013-02-05 22:04:00,2.2,-2.3,30.04,North,3,0.0,0.0,81,0.00,,CLR,0.07,VWS V12.07,2013-02-06 04:04:00,
2013-02-05 22:05:00,2.0,-2.5,30.04,North,3,0.0,0.0,81,0.00,,CLR,0.07,VWS V12.07,2013-02-06 04:05:00,
2013-02-05 22:08:00,2.0,-2.5,30.04,North,3,0.0,0.0,81,0.00,,CLR,0.07,VWS V12.07,2013-02-06 04:08:00,
2013-02-05 22:09:00,1.8,-2.7,30.04,North,3,0.0,0.0,81,0.00,,CLR,0.07,VWS V12.07,2013-02-06 04:09:00,
2013-02-05 22:10:00,1.8,-2.7,30.04,North,3,0.0,0.0,81,0.00,,CLR,0.07,VWS V12.07,2013-02-06 04:10:00,
2013-02-05 22:13:00,1.8,-2.7,30.04,North,3,0.0,0.0,81,0.00,,CLR,0.07,VWS V12.07,2013-02-06 04:13:00,
2013-02-05 22:14:00,1.8,-2.7,30.04,North,3,0.0,0.0,81,0.00,,CLR,0.07,VWS V12.07,2013-02-06 04:14:00,
2013-02-05 22:16:00,1.8,-2.4,30.03,North,3,0.0,0.0,82,0.00,,CLR,0.07,VWS V12.07,2013-02-06 04:16:00,
2013-02-05 22:18:00,1.8,-2.4,30.03,North,3,0.0,0.0,82,0.00,,CLR,0.07,VWS V12.07,2013-02-06 04:18:00,
2013-02-05 22:19:00,1.8,-2.4,30.03,North,3,0.0,0.0,82,0.00,,CLR,0.07,VWS V12.07,2013-02-06 04:19:00,
2013-02-05 22:20:00,1.8,-2.4,30.03,North,3,0.0,0.0,82,0.00,,CLR,0.07,VWS V12.07,2013-02-06 04:20:00,
2013-02-05 22:21:00,1.7,-2.5,30.03,North,3,0.0,0.0,82,0.00,,CLR,0.07,VWS V12.07,2013-02-06 04:21:00,
2013-02-05 22:23:00,1.8,-2.4,30.03,North,3,0.0,0.0,82,0.00,,CLR,0.07,VWS V12.07,2013-02-06 04:23:00,
2013-02-05 22:24:00,1.8,-2.4,30.03,North,3,0.0,0.0,82,0.00,,CLR,0.07,VWS V12.07,2013-02-06 04:24:00,
2013-02-05 22:25:00,1.8,-2.4,30.03,North,3,0.0,0.0,82,0.00,,CLR,0.07,VWS V12.07,2013-02-06 04:25:00,
2013-02-05 22:26:00,1.8,-2.4,30.03,North,3,0.0,0.0,82,0.00,,CLR,0.07,VWS V12.07,2013-02-06 04:26:00,
2013-02-05 22:29:00,2.0,-2.0,30.03,North,3,0.0,0.0,83,0.00,,CLR,0.07,VWS V12.07,2013-02-06 04:29:00,
2013-02-05 22:30:00,2.0,-2.0,30.04,North,3,0.0,0.0,83,0.00,,CLR,0.07,VWS V12.07,2013-02-06 04:30:00,
2013-02-05 22:31:00,2.2,-1.8,30.04,North,3,0.0,0.0,83,0.00,,CLR,0.07,VWS V12.07,2013-02-06 04:31:00,
2013-02-05 22:34:00,2.4,-1.6,30.04,North,3,0.0,0.0,83,0.00,,CLR,0.07,VWS V12.07,2013-02-06 04:34:00,
2013-02-05 22:35:00,2.4,-1.6,30.04,North,3,0.0,0.0,83,0.00,,CLR,0.07,VWS V12.07,2013-02-06 04:35:00,
2013-02-05 22:36:00,2.4,-1.6,30.04,North,3,0.0,0.0,83,0.00,,CLR,0.07,VWS V12.07,2013-02-06 04:36:00,
2013-02-05 22:39:00,2.2,-1.8,30.04,North,3,0.0,0.0,83,0.00,,CLR,0.07,VWS V12.07,2013-02-06 04:39:00,
2013-02-05 22:40:00,2.2,-1.8,30.04,North,3,0.0,0.0,83,0.00,,CLR,0.07,VWS V12.07,2013-02-06 04:40:00,
2013-02-05 22:41:00,2.2,-1.8,30.04,North,3,0.0,0.0,83,0.00,,CLR,0.07,VWS V12.07,2013-02-06 04:41:00,
2013-02-05 22:44:00,1.8,-2.4,30.04,North,3,0.0,0.0,82,0.00,,CLR,0.07,VWS V12.07,2013-02-06 04:44:00,
2013-02-05 22:45:00,1.7,-2.5,30.04,North,3,0.0,0.0,82,0.00,,CLR,0.07,VWS V12.07,2013-02-06 04:45:00,
2013-02-05 22:47:00,1.5,-2.7,30.04,North,3,0.0,0.0,82,0.00,,CLR,0.07,VWS V12.07,2013-02-06 04:47:00,
2013-02-05 22:49:00,1.3,-3.2,30.04,North,3,0.0,0.0,81,0.00,,CLR,0.07,VWS V12.07,2013-02-06 04:49:00,
2013-02-05 22:50:00,1.3,-3.2,30.04,North,3,0.0,0.0,81,0.00,,CLR,0.07,VWS V12.07,2013-02-06 04:50:00,
2013-02-05 22:51:00,1.3,-2.9,30.04,North,3,0.0,0.0,82,0.00,,CLR,0.07,VWS V12.07,2013-02-06 04:51:00,
2013-02-05 22:52:00,1.1,-3.1,30.04,North,3,0.0,0.0,82,0.00,,CLR,0.07,VWS V12.07,2013-02-06 04:52:00,
2013-02-05 22:54:00,1.1,-3.1,30.04,North,3,0.0,0.0,82,0.00,,CLR,0.07,VWS V12.07,2013-02-06 04:54:00,
2013-02-05 22:55:00,1.1,-3.1,30.04,North,3,0.0,0.0,82,0.00,,CLR,0.07,VWS V12.07,2013-02-06 04:55:00,
2013-02-05 22:56:00,1.1,-3.1,30.04,North,3,0.0,0.0,82,0.00,,CLR,0.07,VWS V12.07,2013-02-06 04:56:00,
2013-02-05 22:57:00,1.1,-3.1,30.04,North,3,0.0,0.0,82,0.00,,CLR,0.07,VWS V12.07,2013-02-06 04:57:00,
2013-02-05 22:59:00,1.1,-3.1,30.04,North,3,0.0,0.0,82,0.00,,CLR,0.07,VWS V12.07,2013-02-06 04:59:00,
2013-02-05 23:00:00,1.1,-3.1,30.05,North,3,0.0,0.0,82,0.00,,CLR,0.07,VWS V12.07,2013-02-06 05:00:00,
2013-02-05 23:05:00,0.5,-3.9,30.05,North,3,0.0,0.0,81,0.00,,CLR,0.07,VWS V12.07,2013-02-06 05:05:00,
2013-02-05 23:10:00,0.1,-4.6,30.05,North,3,0.0,0.0,80,0.00,,CLR,0.07,VWS V12.07,2013-02-06 05:10:00,
2013-02-05 23:15:00,0.1,-4.7,30.07,North,3,0.0,0.0,80,0.00,,CLR,0.07,VWS V12.07,2013-02-06 05:15:00,
2013-02-05 23:16:00,0.1,-4.7,30.07,North,3,0.0,0.0,80,0.00,,CLR,0.07,VWS V12.07,2013-02-06 05:16:00,
2013-02-05 23:20:00,-0.4,-5.1,30.07,North,3,0.0,0.0,80,0.00,,CLR,0.07,VWS V12.07,2013-02-06 05:20:00,
2013-02-05 23:21:00,-0.4,-5.1,30.07,North,3,0.0,0.0,80,0.00,,CLR,0.07,VWS V12.07,2013-02-06 05:21:00,
2013-02-05 23:25:00,-0.6,-5.3,30.07,North,3,0.0,0.0,80,0.00,,CLR,0.07,VWS V12.07,2013-02-06 05:25:00,
2013-02-05 23:26:00,-0.6,-5.3,30.07,North,3,0.0,0.0,80,0.00,,CLR,0.07,VWS V12.07,2013-02-06 05:26:00,
2013-02-05 23:30:00,-0.6,-5.3,30.07,North,3,0.0,0.0,80,0.00,,CLR,0.07,VWS V12.07,2013-02-06 05:30:00,
2013-02-05 23:31:00,-0.6,-5.3,30.07,North,3,0.0,0.0,80,0.00,,CLR,0.07,VWS V12.07,2013-02-06 05:31:00,
2013-02-05 23:35:00,-0.6,-5.3,30.07,North,3,0.0,0.0,80,0.00,,CLR,0.07,VWS V12.07,2013-02-06 05:35:00,
2013-02-05 23:36:00,-0.6,-5.3,30.07,North,3,0.0,0.0,80,0.00,,CLR,0.07,VWS V12.07,2013-02-06 05:36:00,
2013-02-05 23:37:00,-0.6,-5.0,30.07,North,3,0.0,0.0,81,0.00,,CLR,0.07,VWS V12.07,2013-02-06 05:37:00,
2013-02-05 23:41:00,-0.2,-4.6,30.07,North,3,0.0,0.0,81,0.00,,CLR,0.07,VWS V12.07,2013-02-06 05:41:00,
2013-02-05 23:42:00,-0.2,-4.6,30.07,North,3,0.0,0.0,81,0.00,,CLR,0.07,VWS V12.07,2013-02-06 05:42:00,
2013-02-05 23:46:00,-0.4,-5.1,30.07,North,3,0.0,0.0,80,0.00,,CLR,0.00,VWS V12.07,2013-02-06 05:46:00,
2013-02-05 23:47:00,-0.4,-5.1,30.07,North,3,0.0,0.0,80,0.00,,CLR,0.00,VWS V12.07,2013-02-06 05:47:00,
2013-02-05 23:52:00,-0.6,-5.3,30.07,North,3,0.0,0.0,80,0.00,,BKN080,0.00,VWS V12.07,2013-02-06 05:52:00,
2013-02-05 23:53:00,-0.6,-5.3,30.07,North,3,0.0,0.0,80,0.00,,BKN080,0.00,VWS V12.07,2013-02-06 05:53:00,
2013-02-05 23:57:00,-0.6,-5.3,30.07,North,3,0.0,0.0,80,0.00,,BKN080,0.00,VWS V12.07,2013-02-06 05:57:00,
2013-02-05 23:58:00,-0.6,-5.3,30.07,North,3,0.0,0.0,80,0.00,,BKN080,0.00,VWS V12.07,2013-02-06 05:58:00,